Time,TemperatureF,DewpointF,PressureIn,WindDirection,WindDirectionDegrees,WindSpeedMPH,WindSpeedGustMPH,Humidity,HourlyPrecipIn,Conditions,Clouds,dailyrainin,SolarRadiationWatts/m^2,SoftwareType,DateUTC
2013-06-12 00:02:00,75.9,72.1,30.01,SE,133,0.0,0.0,88,0.00,,CLR,0.00,0.00,VWS V14.01,2013-06-12 05:02:00,
2013-06-12 00:07:00,75.7,72.2,30.02,SE,133,0.0,0.0,89,0.00,,CLR,0.00,0.00,VWS V14.01,2013-06-12 05:07:00,
2013-06-12 00:12:00,75.7,72.2,30.02,SE,133,0.0,0.0,89,0.00,,CLR,0.00,0.00,VWS V14.01,2013-06-12 05:12:00,
2013-06-12 00:17:00,75.5,72.0,30.01,SE,133,0.0,0.0,89,0.00,,CLR,0.00,0.00,VWS V14.01,2013-06-12 05:17:00,
2013-06-12 00:22:00,75.5,72.0,30.01,SE,133,0.0,0.0,89,0.00,,CLR,0.00,0.00,VWS V14.01,2013-06-12 05:22:00,
2013-06-12 00:27:00,75.4,71.9,30.01,SE,133,0.0,0.0,89,0.00,,CLR,0.00,0.00,VWS V14.01,2013-06-12 05:27:00,
2013-06-12 00:32:00,75.3,71.8,30.01,SE,133,0.0,0.0,89,0.00,,CLR,0.00,0.00,VWS V14.01,2013-06-12 05:32:00,
2013-06-12 00:37:00,75.3,72.2,30.02,SE,133,0.0,0.0,90,0.00,,CLR,0.00,0.00,VWS V14.01,2013-06-12 05:37:00,
2013-06-12 00:42:00,75.4,72.3,30.02,SE,133,0.0,0.0,90,0.00,,CLR,0.00,0.00,VWS V14.01,2013-06-12 05:42:00,
2013-06-12 00:47:00,75.3,72.2,30.02,SE,133,0.0,0.0,90,0.00,,CLR,0.00,0.00,VWS V14.01,2013-06-12 05:47:00,
2013-06-12 00:52:00,75.3,72.2,30.02,SE,133,0.0,0.0,90,0.00,,CLR,0.00,0.00,VWS V14.01,2013-06-12 05:52:00,
2013-06-12 00:57:00,75.2,72.1,30.02,SE,133,0.0,0.0,90,0.00,,CLR,0.00,0.00,VWS V14.01,2013-06-12 05:57:00,
2013-06-12 01:00:00,75.2,72.1,30.02,SE,133,0.0,0.0,90,0.00,,,0.00,0.00,VWS V14.01,2013-06-12 06:00:00,
2013-06-12 01:01:00,75.2,72.1,30.02,SE,132,0.0,2.6,90,0.00,,,0.00,0.00,VWS V14.01,2013-06-12 06:01:00,
2013-06-12 01:02:00,75.2,72.1,30.02,SE,132,0.0,0.0,90,0.00,,,0.00,0.00,VWS V14.01,2013-06-12 06:02:00,
2013-06-12 01:03:00,75.2,72.4,30.02,SE,133,0.0,0.0,91,0.00,,,0.00,0.00,VWS V14.01,2013-06-12 06:03:00,
2013-06-12 01:04:00,75.2,72.4,30.02,SE,133,0.0,0.0,91,0.00,,,0.00,0.00,VWS V14.01,2013-06-12 06:04:00,
2013-06-12 01:05:00,75.2,72.4,30.02,SE,133,0.0,0.0,91,0.00,,,0.00,0.00,VWS V14.01,2013-06-12 06:05:00,
2013-06-12 01:06:00,75.3,72.5,30.02,SE,133,0.0,0.0,91,0.00,,,0.00,0.00,VWS V14.01,2013-06-12 06:06:00,
2013-06-12 01:07:00,75.3,72.5,30.01,SE,133,0.0,1.3,91,0.00,,,0.00,0.00,VWS V14.01,2013-06-12 06:07:00,
2013-06-12 01:08:00,75.3,72.5,30.01,SE,133,0.0,1.3,91,0.00,,,0.00,0.00,VWS V14.01,2013-06-12 06:08:00,
2013-06-12 01:09:00,75.3,72.5,30.01,SE,133,0.0,0.0,91,0.00,,,0.00,0.00,VWS V14.01,2013-06-12 06:09:00,
2013-06-12 01:10:00,75.3,72.5,30.02,SE,133,0.0,0.0,91,0.00,,,0.00,0.00,VWS V14.01,2013-06-12 06:10:00,
2013-06-12 01:11:00,75.3,72.5,30.02,SE,133,0.0,0.0,91,0.00,,,0.00,0.00,VWS V14.01,2013-06-12 06:11:00,
2013-06-12 01:12:00,75.3,72.5,30.01,SE,133,0.0,0.0,91,0.00,,,0.00,0.00,VWS V14.01,2013-06-12 06:12:00,
2013-06-12 01:13:00,75.3,72.5,30.01,SE,133,0.0,0.0,91,0.00,,,0.00,0.00,VWS V14.01,2013-06-12 06:13:00,
2013-06-12 01:14:00,75.3,72.5,30.02,SE,133,0.0,0.0,91,0.00,,,0.00,0.00,VWS V14.01,2013-06-12 06:14:00,
2013-06-12 01:15:00,75.4,72.6,30.01,SE,133,0.0,0.0,91,0.00,,,0.00,0.00,VWS V14.01,2013-06-12 06:15:00,
2013-06-12 01:16:00,75.4,72.6,30.02,SE,133,0.0,0.0,91,0.00,,,0.00,0.00,VWS V14.01,2013-06-12 06:16:00,
2013-06-12 01:17:00,75.4,72.6,30.02,SE,133,0.0,0.0,91,0.00,,,0.00,0.00,VWS V14.01,2013-06-12 06:17:00,
2013-06-12 01:18:00,75.4,72.6,30.02,SE,133,0.0,0.0,91,0.00,,,0.00,0.00,VWS V14.01,2013-06-12 06:18:00,
2013-06-12 01:19:00,75.4,72.6,30.02,SE,133,0.0,0.0,91,0.00,,,0.00,0.00,VWS V14.01,2013-06-12 06:19:00,
2013-06-12 01:20:00,75.4,72.6,30.02,SE,133,0.0,0.0,91,0.00,,,0.00,0.00,VWS V14.01,2013-06-12 06:20:00,
2013-06-12 01:21:00,75.4,72.6,30.02,SE,133,0.0,0.0,91,0.00,,,0.00,0.00,VWS V14.01,2013-06-12 06:21:00,
2013-06-12 01:22:00,75.4,72.6,30.02,SE,133,0.0,0.0,91,0.00,,,0.00,0.00,VWS V14.01,2013-06-12 06:22:00,
2013-06-12 01:23:00,75.4,72.6,30.02,SE,133,0.0,0.0,91,0.00,,,0.00,0.00,VWS V14.01,2013-06-12 06:23:00,
2013-06-12 01:24:00,75.4,72.6,30.02,SE,133,0.0,0.0,91,0.00,,,0.00,0.00,VWS V14.01,2013-06-12 06:24:00,
2013-06-12 01:25:00,75.4,72.6,30.02,SE,133,0.0,0.0,91,0.00,,,0.00,0.00,VWS V14.01,2013-06-12 06:25:00,
2013-06-12 01:26:00,75.4,72.6,30.02,SE,133,0.0,0.0,91,0.00,,,0.00,0.00,VWS V14.01,2013-06-12 06:26:00,
2013-06-12 01:27:00,75.4,72.6,30.02,SE,133,0.0,0.0,91,0.00,,,0.00,0.00,VWS V14.01,2013-06-12 06:27:00,
2013-06-12 01:28:00,75.4,72.6,30.02,SE,133,0.0,0.0,91,0.00,,,0.00,0.00,VWS V14.01,2013-06-12 06:28:00,
2013-06-12 01:29:00,75.3,72.5,30.02,SE,133,0.0,0.0,91,0.00,,,0.00,0.00,VWS V14.01,2013-06-12 06:29:00,
2013-06-12 01:30:00,75.3,72.5,30.02,SE,133,0.0,0.0,91,0.00,,,0.00,0.00,VWS V14.01,2013-06-12 06:30:00,
2013-06-12 01:31:00,75.3,72.5,30.02,SE,133,0.0,0.0,91,0.00,,,0.00,0.00,VWS V14.01,2013-06-12 06:31:00,
2013-06-12 01:32:00,75.3,72.5,30.02,SE,133,0.0,0.0,91,0.00,,,0.00,0.00,VWS V14.01,2013-06-12 06:32:00,
2013-06-12 01:33:00,75.3,72.5,30.02,SE,133,0.0,0.0,91,0.00,,,0.00,0.00,VWS V14.01,2013-06-12 06:33:00,
2013-06-12 01:34:00,75.3,72.5,30.02,SE,133,0.0,0.0,91,0.00,,,0.00,0.00,VWS V14.01,2013-06-12 06:34:00,
2013-06-12 01:35:00,75.3,72.5,30.02,SE,133,0.0,0.0,91,0.00,,,0.00,0.00,VWS V14.01,2013-06-12 06:35:00,
2013-06-12 01:36:00,75.3,72.5,30.02,SE,133,0.0,0.0,91,0.00,,,0.00,0.00,VWS V14.01,2013-06-12 06:36:00,
2013-06-12 01:37:00,75.3,72.5,30.02,SE,133,0.0,0.0,91,0.00,,,0.00,0.00,VWS V14.01,2013-06-12 06:37:00,
2013-06-12 01:38:00,75.3,72.5,30.02,SE,133,0.0,0.0,91,0.00,,,0.00,0.00,VWS V14.01,2013-06-12 06:38:00,
2013-06-12 01:39:00,75.3,72.5,30.02,SE,133,0.0,0.0,91,0.00,,,0.00,0.00,VWS V14.01,2013-06-12 06:39:00,
2013-06-12 01:40:00,75.3,72.5,30.02,SE,133,0.0,0.0,91,0.00,,,0.00,0.00,VWS V14.01,2013-06-12 06:40:00,
2013-06-12 01:41:00,75.3,72.5,30.02,SE,133,0.0,1.3,91,0.00,,,0.00,0.00,VWS V14.01,2013-06-12 06:41:00,
2013-06-12 01:42:00,75.3,72.5,30.02,SE,133,0.0,0.0,91,0.00,,,0.00,0.00,VWS V14.01,2013-06-12 06:42:00,
2013-06-12 01:43:00,75.3,72.5,30.02,SE,133,0.0,0.0,91,0.00,,,0.00,0.00,VWS V14.01,2013-06-12 06:43:00,
2013-06-12 01:44:00,75.3,72.5,30.02,SE,133,2.6,3.9,91,0.00,,,0.00,0.00,VWS V14.01,2013-06-12 06:44:00,
2013-06-12 01:45:00,75.3,72.5,30.02,SE,133,0.0,2.6,91,0.00,,,0.00,0.00,VWS V14.01,2013-06-12 06:45:00,
2013-06-12 01:46:00,75.3,72.5,30.02,SE,133,0.0,0.0,91,0.00,,,0.00,0.00,VWS V14.01,2013-06-12 06:46:00,
2013-06-12 01:47:00,75.3,72.5,30.02,SE,133,0.0,0.0,91,0.00,,,0.00,0.00,VWS V14.01,2013-06-12 06:47:00,
2013-06-12 01:48:00,75.3,72.5,30.02,SE,133,0.0,1.3,91,0.00,,,0.00,0.00,VWS V14.01,2013-06-12 06:48:00,
2013-06-12 01:49:00,75.3,72.5,30.02,SE,133,0.0,0.0,91,0.00,,,0.00,0.00,VWS V14.01,2013-06-12 06:49:00,
2013-06-12 01:50:00,75.3,72.5,30.02,SE,133,1.3,3.9,91,0.00,,,0.00,0.00,VWS V14.01,2013-06-12 06:50:00,
2013-06-12 01:51:00,75.3,72.8,30.02,SE,133,0.0,2.6,92,0.00,,,0.00,0.00,VWS V14.01,2013-06-12 06:51:00,
2013-06-12 01:52:00,75.3,72.8,30.02,SE,133,1.3,2.6,92,0.00,,,0.00,0.00,VWS V14.01,2013-06-12 06:52:00,
2013-06-12 01:53:00,75.3,72.8,30.02,SE,133,1.3,2.6,92,0.00,,,0.00,0.00,VWS V14.01,2013-06-12 06:53:00,
2013-06-12 01:54:00,75.4,72.9,30.02,SE,133,2.6,6.5,92,0.00,,,0.00,0.00,VWS V14.01,2013-06-12 06:54:00,
2013-06-12 01:55:00,75.4,72.9,30.02,SE,133,7.8,7.8,92,0.00,,,0.00,0.00,VWS V14.01,2013-06-12 06:55:00,
2013-06-12 01:56:00,75.4,72.9,30.02,SE,133,5.2,7.8,92,0.00,,,0.00,0.00,VWS V14.01,2013-06-12 06:56:00,
2013-06-12 01:57:00,75.4,72.9,30.02,SE,133,0.0,0.0,92,0.00,,,0.00,0.00,VWS V14.01,2013-06-12 06:57:00,
2013-06-12 01:58:00,75.4,72.9,30.02,SE,133,0.0,0.0,92,0.00,,,0.00,0.00,VWS V14.01,2013-06-12 06:58:00,
2013-06-12 01:59:00,75.4,72.9,30.02,SE,133,2.6,2.6,92,0.00,,,0.00,0.00,VWS V14.01,2013-06-12 06:59:00,
2013-06-12 02:00:00,75.4,72.9,30.02,SE,133,0.0,2.6,92,0.00,,,0.00,0.00,VWS V14.01,2013-06-12 07:00:00,
2013-06-12 02:01:00,75.4,72.9,30.02,SE,133,2.6,6.5,92,0.00,,,0.00,0.00,VWS V14.01,2013-06-12 07:01:00,
2013-06-12 02:02:00,75.5,73.0,30.02,SE,133,3.9,5.2,92,0.00,,,0.00,0.00,VWS V14.01,2013-06-12 07:02:00,
2013-06-12 02:03:00,75.5,73.0,30.02,SE,133,3.9,5.2,92,0.00,,,0.00,0.00,VWS V14.01,2013-06-12 07:03:00,
2013-06-12 02:04:00,75.5,73.0,30.02,SE,133,0.0,7.8,92,0.00,,,0.00,0.00,VWS V14.01,2013-06-12 07:04:00,
2013-06-12 02:05:00,75.5,73.0,30.02,SE,133,2.6,5.2,92,0.00,,,0.00,0.00,VWS V14.01,2013-06-12 07:05:00,
2013-06-12 02:06:00,75.5,73.0,30.01,SE,133,0.0,2.6,92,0.00,,,0.00,0.00,VWS V14.01,2013-06-12 07:06:00,
2013-06-12 02:07:00,75.5,73.0,30.01,SE,133,5.2,6.5,92,0.00,,,0.00,0.00,VWS V14.01,2013-06-12 07:07:00,
2013-06-12 02:08:00,75.5,73.0,30.01,SE,133,5.2,6.5,92,0.00,,,0.00,0.00,VWS V14.01,2013-06-12 07:08:00,
2013-06-12 02:09:00,75.5,73.0,30.01,SE,133,3.9,5.2,92,0.00,,,0.00,0.00,VWS V14.01,2013-06-12 07:09:00,
2013-06-12 02:10:00,75.5,73.0,30.01,SE,133,1.3,6.5,92,0.00,,,0.00,0.00,VWS V14.01,2013-06-12 07:10:00,
2013-06-12 02:11:00,75.5,73.0,30.01,SE,135,7.8,7.8,92,0.00,,,0.00,0.00,VWS V14.01,2013-06-12 07:11:00,
2013-06-12 02:12:00,75.5,73.0,30.01,SE,138,5.2,7.8,92,0.00,,,0.00,0.00,VWS V14.01,2013-06-12 07:12:00,
2013-06-12 02:13:00,75.5,73.0,30.01,SE,138,5.2,7.8,92,0.00,,,0.00,0.00,VWS V14.01,2013-06-12 07:13:00,
2013-06-12 02:14:00,75.5,73.0,30.01,SE,143,5.2,7.8,92,0.00,,,0.00,0.00,VWS V14.01,2013-06-12 07:14:00,
2013-06-12 02:15:00,75.5,73.0,30.01,SE,144,0.0,7.8,92,0.00,,,0.00,0.00,VWS V14.01,2013-06-12 07:15:00,
2013-06-12 02:16:00,75.5,73.0,30.01,SE,144,0.0,3.9,92,0.00,,,0.00,0.00,VWS V14.01,2013-06-12 07:16:00,
2013-06-12 02:17:00,75.6,73.1,30.01,SE,145,3.9,5.2,92,0.00,,,0.00,0.00,VWS V14.01,2013-06-12 07:17:00,
2013-06-12 02:18:00,75.6,73.1,30.01,SE,145,3.9,5.2,92,0.00,,,0.00,0.00,VWS V14.01,2013-06-12 07:18:00,
2013-06-12 02:19:00,75.5,73.0,30.01,SE,145,0.0,5.2,92,0.00,,,0.00,0.00,VWS V14.01,2013-06-12 07:19:00,
2013-06-12 02:20:00,75.6,73.1,30.01,SE,145,0.0,5.2,92,0.00,,,0.00,0.00,VWS V14.01,2013-06-12 07:20:00,
2013-06-12 02:21:00,75.6,73.1,30.01,SE,145,1.3,5.2,92,0.00,,,0.00,0.00,VWS V14.01,2013-06-12 07:21:00,
2013-06-12 02:22:00,75.5,73.0,30.01,SE,145,7.8,7.8,92,0.00,,,0.00,0.00,VWS V14.01,2013-06-12 07:22:00,
2013-06-12 02:23:00,75.5,73.0,30.01,SE,145,7.8,7.8,92,0.00,,,0.00,0.00,VWS V14.01,2013-06-12 07:23:00,
2013-06-12 02:24:00,75.5,73.0,30.01,SE,145,0.0,7.8,92,0.00,,,0.00,0.00,VWS V14.01,2013-06-12 07:24:00,
2013-06-12 02:25:00,75.6,73.1,30.01,SSE,151,3.9,7.8,92,0.00,,,0.00,0.00,VWS V14.01,2013-06-12 07:25:00,
2013-06-12 02:26:00,75.6,73.1,30.01,SSE,152,7.8,7.8,92,0.00,,,0.00,0.00,VWS V14.01,2013-06-12 07:26:00,
2013-06-12 02:27:00,75.6,73.1,30.01,SSE,152,0.0,5.2,92,0.00,,,0.00,0.00,VWS V14.01,2013-06-12 07:27:00,
2013-06-12 02:28:00,75.6,73.1,30.01,SSE,152,0.0,5.2,92,0.00,,,0.00,0.00,VWS V14.01,2013-06-12 07:28:00,
2013-06-12 02:29:00,75.5,73.0,30.01,SSE,152,0.0,5.2,92,0.00,,,0.00,0.00,VWS V14.01,2013-06-12 07:29:00,
2013-06-12 02:30:00,75.6,73.1,30.01,SSE,152,2.6,2.6,92,0.00,,,0.00,0.00,VWS V14.01,2013-06-12 07:30:00,
2013-06-12 02:31:00,75.6,73.1,30.01,SSE,152,0.0,5.2,92,0.00,,,0.00,0.00,VWS V14.01,2013-06-12 07:31:00,
2013-06-12 02:32:00,75.6,73.1,30.01,SSE,153,2.6,3.9,92,0.00,,,0.00,0.00,VWS V14.01,2013-06-12 07:32:00,
2013-06-12 02:33:00,75.6,73.1,30.01,SSE,153,2.6,3.9,92,0.00,,,0.00,0.00,VWS V14.01,2013-06-12 07:33:00,
2013-06-12 02:34:00,75.6,73.1,30.01,SSE,153,0.0,3.9,92,0.00,,,0.00,0.00,VWS V14.01,2013-06-12 07:34:00,
2013-06-12 02:35:00,75.6,73.1,30.01,SSE,153,2.6,2.6,92,0.00,,,0.00,0.00,VWS V14.01,2013-06-12 07:35:00,
2013-06-12 02:36:00,75.6,73.1,30.01,SSE,153,6.5,7.8,92,0.00,,,0.00,0.00,VWS V14.01,2013-06-12 07:36:00,
2013-06-12 02:37:00,75.6,73.1,30.01,SSE,154,0.0,6.5,92,0.00,,,0.00,0.00,VWS V14.01,2013-06-12 07:37:00,
2013-06-12 02:38:00,75.6,73.1,30.01,SSE,154,0.0,6.5,92,0.00,,,0.00,0.00,VWS V14.01,2013-06-12 07:38:00,
2013-06-12 02:39:00,75.6,73.1,30.01,SSE,155,1.3,6.5,92,0.00,,,0.00,0.00,VWS V14.01,2013-06-12 07:39:00,
2013-06-12 02:40:00,75.6,73.1,30.01,SSE,157,2.6,6.5,92,0.00,,,0.00,0.00,VWS V14.01,2013-06-12 07:40:00,
2013-06-12 02:41:00,75.6,73.1,30.01,SSE,158,2.6,6.5,92,0.00,,,0.00,0.00,VWS V14.01,2013-06-12 07:41:00,
2013-06-12 02:42:00,75.7,73.2,30.01,SSE,158,3.9,6.5,92,0.00,,,0.00,0.00,VWS V14.01,2013-06-12 07:42:00,
2013-06-12 02:43:00,75.7,73.2,30.01,SSE,158,3.9,6.5,92,0.00,,,0.00,0.00,VWS V14.01,2013-06-12 07:43:00,
2013-06-12 02:44:00,75.7,73.2,30.01,SSE,157,0.0,5.2,92,0.00,,,0.00,0.00,VWS V14.01,2013-06-12 07:44:00,
2013-06-12 02:45:00,75.7,73.2,30.01,SSE,156,1.3,6.5,92,0.00,,,0.00,0.00,VWS V14.01,2013-06-12 07:45:00,
2013-06-12 02:46:00,75.7,73.2,30.01,SSE,156,0.0,2.6,92,0.00,,,0.00,0.00,VWS V14.01,2013-06-12 07:46:00,
2013-06-12 02:47:00,75.6,73.1,30.01,SSE,156,3.9,5.2,92,0.00,,,0.00,0.00,VWS V14.01,2013-06-12 07:47:00,
2013-06-12 02:48:00,75.6,73.1,30.01,SSE,156,3.9,5.2,92,0.00,,,0.00,0.00,VWS V14.01,2013-06-12 07:48:00,
2013-06-12 02:49:00,75.7,73.2,30.01,SSE,156,0.0,6.5,92,0.00,,,0.00,0.00,VWS V14.01,2013-06-12 07:49:00,
2013-06-12 02:50:00,75.7,73.2,30.01,SSE,156,5.2,5.2,92,0.00,,,0.00,0.00,VWS V14.01,2013-06-12 07:50:00,
2013-06-12 02:51:00,75.7,73.2,30.01,SSE,156,0.0,5.2,92,0.00,,,0.00,0.00,VWS V14.01,2013-06-12 07:51:00,
2013-06-12 02:52:00,75.7,73.2,30.01,SSE,156,0.0,5.2,92,0.00,,,0.00,0.00,VWS V14.01,2013-06-12 07:52:00,
2013-06-12 02:53:00,75.7,73.2,30.01,SSE,156,0.0,5.2,92,0.00,,,0.00,0.00,VWS V14.01,2013-06-12 07:53:00,
2013-06-12 02:54:00,75.6,73.1,30.01,SSE,156,0.0,3.9,92,0.00,,,0.00,0.00,VWS V14.01,2013-06-12 07:54:00,
2013-06-12 02:55:00,75.6,73.1,30.01,SSE,156,0.0,1.3,92,0.00,,,0.00,0.00,VWS V14.01,2013-06-12 07:55:00,
2013-06-12 02:56:00,75.6,73.1,30.01,SSE,157,7.8,7.8,92,0.00,,,0.00,0.00,VWS V14.01,2013-06-12 07:56:00,
2013-06-12 02:57:00,75.6,73.1,30.01,SSE,156,0.0,1.3,92,0.00,,,0.00,0.00,VWS V14.01,2013-06-12 07:57:00,
2013-06-12 02:58:00,75.6,73.1,30.01,SSE,156,0.0,1.3,92,0.00,,,0.00,0.00,VWS V14.01,2013-06-12 07:58:00,
2013-06-12 02:59:00,75.6,73.1,30.01,SSE,156,0.0,5.2,92,0.00,,,0.00,0.00,VWS V14.01,2013-06-12 07:59:00,
2013-06-12 03:00:00,75.6,73.1,30.01,SSE,156,0.0,0.0,92,0.00,,,0.00,0.00,VWS V14.01,2013-06-12 08:00:00,
2013-06-12 03:01:00,75.6,73.1,30.01,SSE,156,0.0,0.0,92,0.00,,,0.00,0.00,VWS V14.01,2013-06-12 08:01:00,
2013-06-12 03:02:00,75.6,73.4,30.01,SSE,156,3.9,5.2,93,0.00,,,0.00,0.00,VWS V14.01,2013-06-12 08:02:00,
2013-06-12 03:03:00,75.6,73.4,30.01,SSE,156,3.9,5.2,93,0.00,,,0.00,0.00,VWS V14.01,2013-06-12 08:03:00,
2013-06-12 03:04:00,75.6,73.1,30.01,SSE,156,0.0,5.2,92,0.00,,,0.00,0.00,VWS V14.01,2013-06-12 08:04:00,
2013-06-12 03:05:00,75.6,73.4,30.01,SSE,156,0.0,0.0,93,0.00,,,0.00,0.00,VWS V14.01,2013-06-12 08:05:00,
2013-06-12 03:06:00,75.6,73.1,30.01,SSE,156,5.2,5.2,92,0.00,,,0.00,0.00,VWS V14.01,2013-06-12 08:06:00,
2013-06-12 03:07:00,75.6,73.4,30.01,SSE,156,0.0,0.0,93,0.00,,,0.00,0.00,VWS V14.01,2013-06-12 08:07:00,
2013-06-12 03:08:00,75.6,73.4,30.01,SSE,156,0.0,0.0,93,0.00,,,0.00,0.00,VWS V14.01,2013-06-12 08:08:00,
2013-06-12 03:09:00,75.5,73.0,30.01,SSE,156,0.0,0.0,92,0.00,,,0.00,0.00,VWS V14.01,2013-06-12 08:09:00,
2013-06-12 03:10:00,75.5,73.0,30.01,SSE,156,0.0,0.0,92,0.00,,,0.00,0.00,VWS V14.01,2013-06-12 08:10:00,
2013-06-12 03:11:00,75.5,73.0,30.01,SSE,156,0.0,0.0,92,0.00,,,0.00,0.00,VWS V14.01,2013-06-12 08:11:00,
2013-06-12 03:12:00,75.5,73.0,30.01,SSE,155,0.0,0.0,92,0.00,,,0.00,0.00,VWS V14.01,2013-06-12 08:12:00,
2013-06-12 03:13:00,75.5,73.0,30.01,SSE,155,0.0,3.9,92,0.00,,,0.00,0.00,VWS V14.01,2013-06-12 08:13:00,
2013-06-12 03:14:00,75.5,73.3,30.01,SSE,155,0.0,2.6,93,0.00,,,0.00,0.00,VWS V14.01,2013-06-12 08:14:00,
2013-06-12 03:15:00,75.5,73.0,30.01,SSE,155,0.0,0.0,92,0.00,,,0.00,0.00,VWS V14.01,2013-06-12 08:15:00,
2013-06-12 03:16:00,75.5,73.0,30.01,SSE,155,0.0,0.0,92,0.00,,,0.00,0.00,VWS V14.01,2013-06-12 08:16:00,
2013-06-12 03:17:00,75.5,73.0,30.01,SSE,155,0.0,1.3,92,0.00,,,0.00,0.00,VWS V14.01,2013-06-12 08:17:00,
2013-06-12 03:18:00,75.5,73.0,30.01,SSE,155,0.0,1.3,92,0.00,,,0.00,0.00,VWS V14.01,2013-06-12 08:18:00,
2013-06-12 03:19:00,75.4,73.2,30.01,SSE,155,0.0,0.0,93,0.00,,,0.00,0.00,VWS V14.01,2013-06-12 08:19:00,
2013-06-12 03:20:00,75.5,73.3,30.01,SSE,155,1.3,1.3,93,0.00,,,0.00,0.00,VWS V14.01,2013-06-12 08:20:00,
2013-06-12 03:21:00,75.4,73.2,30.01,SSE,156,3.9,6.5,93,0.00,,,0.00,0.00,VWS V14.01,2013-06-12 08:21:00,
2013-06-12 03:22:00,75.4,73.2,30.01,SSE,156,0.0,0.0,93,0.00,,,0.00,0.00,VWS V14.01,2013-06-12 08:22:00,
2013-06-12 03:23:00,75.4,73.2,30.01,SSE,156,0.0,0.0,93,0.00,,,0.00,0.00,VWS V14.01,2013-06-12 08:23:00,
2013-06-12 03:24:00,75.4,73.2,30.01,SSE,156,0.0,0.0,93,0.00,,,0.00,0.00,VWS V14.01,2013-06-12 08:24:00,
2013-06-12 03:25:00,75.4,73.2,30.01,SSE,156,2.6,2.6,93,0.00,,,0.00,0.00,VWS V14.01,2013-06-12 08:25:00,
2013-06-12 03:26:00,75.4,73.2,30.01,SSE,156,0.0,2.6,93,0.00,,,0.00,0.00,VWS V14.01,2013-06-12 08:26:00,
2013-06-12 03:27:00,75.4,73.2,30.01,SSE,152,0.0,0.0,93,0.00,,,0.00,0.00,VWS V14.01,2013-06-12 08:27:00,
2013-06-12 03:28:00,75.4,73.2,30.01,SSE,152,0.0,3.9,93,0.00,,,0.00,0.00,VWS V14.01,2013-06-12 08:28:00,
2013-06-12 03:29:00,75.4,73.2,30.01,SSE,152,2.6,6.5,93,0.00,,,0.00,0.00,VWS V14.01,2013-06-12 08:29:00,
2013-06-12 03:30:00,75.4,73.2,30.01,SSE,152,1.3,6.5,93,0.00,,,0.00,0.00,VWS V14.01,2013-06-12 08:30:00,
2013-06-12 03:31:00,75.4,73.2,30.01,SSE,152,0.0,5.2,93,0.00,,,0.00,0.00,VWS V14.01,2013-06-12 08:31:00,
2013-06-12 03:32:00,75.4,73.2,30.01,SSE,152,0.0,0.0,93,0.00,,,0.00,0.00,VWS V14.01,2013-06-12 08:32:00,
2013-06-12 03:33:00,75.4,73.2,30.01,SSE,152,0.0,1.3,93,0.00,,,0.00,0.00,VWS V14.01,2013-06-12 08:33:00,
2013-06-12 03:34:00,75.4,73.2,30.01,SSE,152,5.2,5.2,93,0.00,,,0.00,0.00,VWS V14.01,2013-06-12 08:34:00,
2013-06-12 03:35:00,75.4,73.2,30.01,SSE,152,0.0,5.2,93,0.00,,,0.00,0.00,VWS V14.01,2013-06-12 08:35:00,
2013-06-12 03:36:00,75.4,73.2,30.01,SSE,152,0.0,5.2,93,0.00,,,0.00,0.00,VWS V14.01,2013-06-12 08:36:00,
2013-06-12 03:37:00,75.4,73.2,30.01,SSE,152,0.0,0.0,93,0.00,,,0.00,0.00,VWS V14.01,2013-06-12 08:37:00,
2013-06-12 03:38:00,75.4,73.2,30.01,SSE,152,0.0,1.3,93,0.00,,,0.00,0.00,VWS V14.01,2013-06-12 08:38:00,
2013-06-12 03:39:00,75.4,73.2,30.01,SSE,152,0.0,1.3,93,0.00,,,0.00,0.00,VWS V14.01,2013-06-12 08:39:00,
2013-06-12 03:40:00,75.4,73.2,30.01,SSE,152,1.3,1.3,93,0.00,,,0.00,0.00,VWS V14.01,2013-06-12 08:40:00,
2013-06-12 03:41:00,75.4,73.2,30.01,SSE,152,0.0,1.3,93,0.00,,,0.00,0.00,VWS V14.01,2013-06-12 08:41:00,
2013-06-12 03:42:00,75.4,73.2,30.01,SSE,150,0.0,0.0,93,0.00,,,0.00,0.00,VWS V14.01,2013-06-12 08:42:00,
2013-06-12 03:43:00,75.4,73.2,30.01,SSE,150,0.0,0.0,93,0.00,,,0.00,0.00,VWS V14.01,2013-06-12 08:43:00,
2013-06-12 03:44:00,75.4,73.2,30.01,SSE,150,3.9,3.9,93,0.00,,,0.00,0.00,VWS V14.01,2013-06-12 08:44:00,
2013-06-12 03:45:00,75.4,73.2,30.01,SSE,150,0.0,5.2,93,0.00,,,0.00,0.00,VWS V14.01,2013-06-12 08:45:00,
2013-06-12 03:46:00,75.4,73.2,30.01,SSE,150,0.0,1.3,93,0.00,,,0.00,0.00,VWS V14.01,2013-06-12 08:46:00,
2013-06-12 03:47:00,75.4,73.2,30.01,SSE,150,0.0,0.0,93,0.00,,,0.00,0.00,VWS V14.01,2013-06-12 08:47:00,
2013-06-12 03:48:00,75.4,73.2,30.01,SSE,150,0.0,0.0,93,0.00,,,0.00,0.00,VWS V14.01,2013-06-12 08:48:00,
2013-06-12 03:49:00,75.4,73.2,30.01,SSE,150,0.0,0.0,93,0.00,,,0.00,0.00,VWS V14.01,2013-06-12 08:49:00,
2013-06-12 03:50:00,75.4,73.2,30.01,SSE,150,0.0,0.0,93,0.00,,,0.00,0.00,VWS V14.01,2013-06-12 08:50:00,
2013-06-12 03:51:00,75.4,73.2,30.01,SSE,150,0.0,0.0,93,0.00,,,0.00,0.00,VWS V14.01,2013-06-12 08:51:00,
2013-06-12 03:52:00,75.3,73.1,30.01,SSE,150,0.0,0.0,93,0.00,,,0.00,0.00,VWS V14.01,2013-06-12 08:52:00,
2013-06-12 03:53:00,75.3,73.1,30.01,SSE,150,0.0,0.0,93,0.00,,,0.00,0.00,VWS V14.01,2013-06-12 08:53:00,
2013-06-12 03:54:00,75.3,73.1,30.01,SSE,150,6.5,6.5,93,0.00,,,0.00,0.00,VWS V14.01,2013-06-12 08:54:00,
2013-06-12 03:55:00,75.3,73.1,30.01,SSE,150,0.0,6.5,93,0.00,,,0.00,0.00,VWS V14.01,2013-06-12 08:55:00,
2013-06-12 03:56:00,75.3,73.1,30.00,SSE,150,0.0,1.3,93,0.00,,,0.00,0.00,VWS V14.01,2013-06-12 08:56:00,
2013-06-12 03:57:00,75.3,73.1,30.00,SSE,150,0.0,0.0,93,0.00,,,0.00,0.00,VWS V14.01,2013-06-12 08:57:00,
2013-06-12 03:58:00,75.3,73.1,30.01,SSE,150,0.0,0.0,93,0.00,,,0.00,0.00,VWS V14.01,2013-06-12 08:58:00,
2013-06-12 03:59:00,75.3,73.1,30.00,SSE,150,1.3,3.9,93,0.00,,,0.00,0.00,VWS V14.01,2013-06-12 08:59:00,
2013-06-12 04:00:00,75.3,73.1,30.01,SSE,150,2.6,2.6,93,0.00,,,0.00,0.00,VWS V14.01,2013-06-12 09:00:00,
2013-06-12 04:01:00,75.3,73.1,30.01,SSE,150,0.0,2.6,93,0.00,,,0.00,0.00,VWS V14.01,2013-06-12 09:01:00,
2013-06-12 04:02:00,75.3,73.1,30.01,SSE,150,0.0,0.0,93,0.00,,,0.00,0.00,VWS V14.01,2013-06-12 09:02:00,
2013-06-12 04:03:00,75.3,73.1,30.01,SSE,150,0.0,0.0,93,0.00,,,0.00,0.00,VWS V14.01,2013-06-12 09:03:00,
2013-06-12 04:04:00,75.3,73.1,30.01,SSE,150,0.0,0.0,93,0.00,,,0.00,0.00,VWS V14.01,2013-06-12 09:04:00,
2013-06-12 04:05:00,75.3,73.1,30.01,SSE,150,0.0,0.0,93,0.00,,,0.00,0.00,VWS V14.01,2013-06-12 09:05:00,
2013-06-12 04:06:00,75.2,73.0,30.01,SSE,150,0.0,0.0,93,0.00,,,0.00,0.00,VWS V14.01,2013-06-12 09:06:00,
2013-06-12 04:07:00,75.3,73.1,30.01,SSE,150,0.0,0.0,93,0.00,,,0.00,0.00,VWS V14.01,2013-06-12 09:07:00,
2013-06-12 04:08:00,75.2,73.0,30.01,SSE,150,0.0,0.0,93,0.00,,,0.00,0.00,VWS V14.01,2013-06-12 09:08:00,
2013-06-12 04:09:00,75.2,73.0,30.01,SSE,150,0.0,0.0,93,0.00,,,0.00,0.00,VWS V14.01,2013-06-12 09:09:00,
2013-06-12 04:10:00,75.2,73.0,30.01,SSE,150,0.0,5.2,93,0.00,,,0.00,0.00,VWS V14.01,2013-06-12 09:10:00,
2013-06-12 04:11:00,75.2,73.0,30.01,SSE,150,0.0,2.6,93,0.00,,,0.00,0.00,VWS V14.01,2013-06-12 09:11:00,
2013-06-12 04:12:00,75.2,73.0,30.01,SSE,150,1.3,1.3,93,0.00,,,0.00,0.00,VWS V14.01,2013-06-12 09:12:00,
2013-06-12 04:13:00,75.2,73.0,30.01,SSE,150,2.6,2.6,93,0.00,,,0.00,0.00,VWS V14.01,2013-06-12 09:13:00,
2013-06-12 04:14:00,75.2,73.0,30.01,SSE,150,0.0,2.6,93,0.00,,,0.00,0.00,VWS V14.01,2013-06-12 09:14:00,
2013-06-12 04:15:00,75.2,73.0,30.01,SSE,150,0.0,2.6,93,0.00,,,0.00,0.00,VWS V14.01,2013-06-12 09:15:00,
2013-06-12 04:16:00,75.2,73.0,30.01,SSE,150,0.0,0.0,93,0.00,,,0.00,0.00,VWS V14.01,2013-06-12 09:16:00,
2013-06-12 04:17:00,75.1,72.9,30.01,SSE,150,0.0,0.0,93,0.00,,,0.00,0.00,VWS V14.01,2013-06-12 09:17:00,
2013-06-12 04:18:00,75.1,72.9,30.01,SSE,150,0.0,0.0,93,0.00,,,0.00,0.00,VWS V14.01,2013-06-12 09:18:00,
2013-06-12 04:19:00,75.1,72.9,30.01,SSE,150,0.0,0.0,93,0.00,,,0.00,0.00,VWS V14.01,2013-06-12 09:19:00,
2013-06-12 04:20:00,75.1,72.9,30.01,SSE,150,1.3,5.2,93,0.00,,,0.00,0.00,VWS V14.01,2013-06-12 09:20:00,
2013-06-12 04:21:00,75.1,72.9,30.01,SSE,150,0.0,1.3,93,0.00,,,0.00,0.00,VWS V14.01,2013-06-12 09:21:00,
2013-06-12 04:22:00,75.1,72.9,30.01,SSE,150,0.0,1.3,93,0.00,,,0.00,0.00,VWS V14.01,2013-06-12 09:22:00,
2013-06-12 04:23:00,75.1,72.9,30.01,SSE,150,0.0,0.0,93,0.00,,,0.00,0.00,VWS V14.01,2013-06-12 09:23:00,
2013-06-12 04:24:00,75.0,72.8,30.01,SSE,150,0.0,0.0,93,0.00,,,0.00,0.00,VWS V14.01,2013-06-12 09:24:00,
2013-06-12 04:25:00,75.1,72.9,30.01,SSE,150,0.0,0.0,93,0.00,,,0.00,0.00,VWS V14.01,2013-06-12 09:25:00,
2013-06-12 04:26:00,75.0,72.8,30.01,SSE,150,0.0,0.0,93,0.00,,,0.00,0.00,VWS V14.01,2013-06-12 09:26:00,
2013-06-12 04:27:00,75.0,72.8,30.01,SSE,150,0.0,0.0,93,0.00,,,0.00,0.00,VWS V14.01,2013-06-12 09:27:00,
2013-06-12 04:28:00,75.0,72.8,30.01,SSE,150,0.0,0.0,93,0.00,,,0.00,0.00,VWS V14.01,2013-06-12 09:28:00,
2013-06-12 04:29:00,75.0,72.8,30.01,SSE,150,0.0,0.0,93,0.00,,,0.00,0.00,VWS V14.01,2013-06-12 09:29:00,
2013-06-12 04:30:00,75.0,72.8,30.01,SSE,150,0.0,0.0,93,0.00,,,0.00,0.00,VWS V14.01,2013-06-12 09:30:00,
2013-06-12 04:31:00,75.0,72.8,30.01,SSE,150,0.0,0.0,93,0.00,,,0.00,0.00,VWS V14.01,2013-06-12 09:31:00,
2013-06-12 04:32:00,74.9,72.7,30.01,SSE,150,0.0,0.0,93,0.00,,,0.00,0.00,VWS V14.01,2013-06-12 09:32:00,
2013-06-12 04:33:00,74.9,72.7,30.01,SSE,150,0.0,0.0,93,0.00,,,0.00,0.00,VWS V14.01,2013-06-12 09:33:00,
2013-06-12 04:34:00,74.9,72.7,30.01,SSE,150,0.0,0.0,93,0.00,,,0.00,0.00,VWS V14.01,2013-06-12 09:34:00,
2013-06-12 04:35:00,74.9,72.7,30.01,SSE,150,0.0,0.0,93,0.00,,,0.00,0.00,VWS V14.01,2013-06-12 09:35:00,
2013-06-12 04:36:00,74.9,72.7,30.01,SSE,150,0.0,0.0,93,0.00,,,0.00,0.00,VWS V14.01,2013-06-12 09:36:00,
2013-06-12 04:37:00,74.9,72.7,30.01,SSE,150,0.0,0.0,93,0.00,,,0.00,0.00,VWS V14.01,2013-06-12 09:37:00,
2013-06-12 04:38:00,74.9,72.7,30.01,SSE,150,0.0,0.0,93,0.00,,,0.00,0.00,VWS V14.01,2013-06-12 09:38:00,
2013-06-12 04:39:00,74.9,72.7,30.01,SSE,150,0.0,0.0,93,0.00,,,0.00,0.00,VWS V14.01,2013-06-12 09:39:00,
2013-06-12 04:40:00,74.9,72.7,30.01,SSE,150,0.0,0.0,93,0.00,,,0.00,0.00,VWS V14.01,2013-06-12 09:40:00,
2013-06-12 04:41:00,74.8,72.6,30.01,SSE,150,0.0,0.0,93,0.00,,,0.00,0.00,VWS V14.01,2013-06-12 09:41:00,
2013-06-12 04:42:00,74.8,72.6,30.01,SSE,150,0.0,0.0,93,0.00,,,0.00,0.00,VWS V14.01,2013-06-12 09:42:00,
2013-06-12 04:43:00,74.8,72.6,30.01,SSE,150,0.0,0.0,93,0.00,,,0.00,0.00,VWS V14.01,2013-06-12 09:43:00,
2013-06-12 04:44:00,74.8,72.6,30.01,SSE,150,0.0,0.0,93,0.00,,,0.00,0.00,VWS V14.01,2013-06-12 09:44:00,
2013-06-12 04:45:00,74.8,72.6,30.01,SSE,150,0.0,0.0,93,0.00,,,0.00,0.00,VWS V14.01,2013-06-12 09:45:00,
2013-06-12 04:46:00,74.8,72.6,30.01,SSE,150,0.0,0.0,93,0.00,,,0.00,0.00,VWS V14.01,2013-06-12 09:46:00,
2013-06-12 04:47:00,74.8,72.6,30.01,SSE,150,0.0,0.0,93,0.00,,,0.00,0.00,VWS V14.01,2013-06-12 09:47:00,
2013-06-12 04:48:00,74.7,72.6,30.01,SSE,150,0.0,0.0,93,0.00,,,0.00,0.00,VWS V14.01,2013-06-12 09:48:00,
2013-06-12 04:49:00,74.7,72.5,30.01,SSE,150,0.0,0.0,93,0.00,,,0.00,0.00,VWS V14.01,2013-06-12 09:49:00,
2013-06-12 04:50:00,74.7,72.5,30.01,SSE,150,0.0,0.0,93,0.00,,,0.00,0.00,VWS V14.01,2013-06-12 09:50:00,
2013-06-12 04:51:00,74.7,72.5,30.01,SSE,150,0.0,0.0,93,0.00,,,0.00,0.00,VWS V14.01,2013-06-12 09:51:00,
2013-06-12 04:52:00,74.7,72.5,30.01,SSE,150,0.0,0.0,93,0.00,,,0.00,0.00,VWS V14.01,2013-06-12 09:52:00,
2013-06-12 04:53:00,74.7,72.6,30.01,SSE,150,0.0,0.0,93,0.00,,,0.00,0.00,VWS V14.01,2013-06-12 09:53:00,
2013-06-12 04:54:00,74.7,72.5,30.01,SSE,150,0.0,0.0,93,0.00,,,0.00,0.00,VWS V14.01,2013-06-12 09:54:00,
2013-06-12 04:55:00,74.7,72.5,30.01,SSE,150,0.0,0.0,93,0.00,,,0.00,0.00,VWS V14.01,2013-06-12 09:55:00,
2013-06-12 04:56:00,74.7,72.5,30.01,SSE,150,0.0,0.0,93,0.00,,,0.00,0.00,VWS V14.01,2013-06-12 09:56:00,
2013-06-12 04:57:00,74.6,72.4,30.01,SSE,150,0.0,0.0,93,0.00,,,0.00,0.00,VWS V14.01,2013-06-12 09:57:00,
2013-06-12 04:58:00,74.6,72.4,30.01,SSE,150,0.0,0.0,93,0.00,,,0.00,0.00,VWS V14.01,2013-06-12 09:58:00,
2013-06-12 04:59:00,74.6,72.4,30.01,SSE,150,0.0,0.0,93,0.00,,,0.00,0.00,VWS V14.01,2013-06-12 09:59:00,
2013-06-12 05:00:00,74.6,72.4,30.01,SSE,150,0.0,0.0,93,0.00,,,0.00,0.00,VWS V14.01,2013-06-12 10:00:00,
2013-06-12 05:01:00,74.6,72.4,30.01,SSE,150,0.0,0.0,93,0.00,,,0.00,0.00,VWS V14.01,2013-06-12 10:01:00,
2013-06-12 05:02:00,74.6,72.4,30.01,SSE,150,0.0,0.0,93,0.00,,,0.00,0.00,VWS V14.01,2013-06-12 10:02:00,
2013-06-12 05:03:00,74.6,72.4,30.01,SSE,150,0.0,0.0,93,0.00,,,0.00,0.00,VWS V14.01,2013-06-12 10:03:00,
2013-06-12 05:04:00,74.6,72.4,30.01,SSE,150,0.0,0.0,93,0.00,,,0.00,0.00,VWS V14.01,2013-06-12 10:04:00,
2013-06-12 05:05:00,74.6,72.4,30.01,SSE,150,0.0,0.0,93,0.00,,,0.00,0.00,VWS V14.01,2013-06-12 10:05:00,
2013-06-12 05:06:00,74.6,72.4,30.01,SSE,150,0.0,0.0,93,0.00,,,0.00,0.00,VWS V14.01,2013-06-12 10:06:00,
2013-06-12 05:07:00,74.6,72.4,30.01,SSE,150,0.0,0.0,93,0.00,,,0.00,0.00,VWS V14.01,2013-06-12 10:07:00,
2013-06-12 05:08:00,74.5,72.3,30.01,SSE,150,0.0,0.0,93,0.00,,,0.00,0.00,VWS V14.01,2013-06-12 10:08:00,
2013-06-12 05:09:00,74.5,72.3,30.01,SSE,150,0.0,0.0,93,0.00,,,0.00,0.00,VWS V14.01,2013-06-12 10:09:00,
2013-06-12 05:10:00,74.6,72.4,30.01,SSE,150,0.0,0.0,93,0.00,,,0.00,0.00,VWS V14.01,2013-06-12 10:10:00,
2013-06-12 05:11:00,74.5,72.3,30.01,SSE,150,0.0,0.0,93,0.00,,,0.00,0.00,VWS V14.01,2013-06-12 10:11:00,
2013-06-12 05:12:00,74.5,72.3,30.01,SSE,150,0.0,0.0,93,0.00,,,0.00,0.00,VWS V14.01,2013-06-12 10:12:00,
2013-06-12 05:13:00,74.5,72.3,30.01,SSE,150,0.0,0.0,93,0.00,,,0.00,0.00,VWS V14.01,2013-06-12 10:13:00,
2013-06-12 05:14:00,74.5,72.3,30.01,SSE,150,0.0,0.0,93,0.00,,,0.00,0.00,VWS V14.01,2013-06-12 10:14:00,
2013-06-12 05:15:00,74.5,72.3,30.01,SSE,150,0.0,0.0,93,0.00,,,0.00,0.00,VWS V14.01,2013-06-12 10:15:00,
2013-06-12 05:16:00,74.5,72.3,30.01,SSE,150,0.0,0.0,93,0.00,,,0.00,0.00,VWS V14.01,2013-06-12 10:16:00,
2013-06-12 05:17:00,74.5,72.3,30.01,SSE,150,0.0,0.0,93,0.00,,,0.00,0.00,VWS V14.01,2013-06-12 10:17:00,
2013-06-12 05:18:00,74.4,72.2,30.01,SSE,150,0.0,0.0,93,0.00,,,0.00,0.00,VWS V14.01,2013-06-12 10:18:00,
2013-06-12 05:19:00,74.4,72.2,30.01,SSE,150,0.0,0.0,93,0.00,,,0.00,0.00,VWS V14.01,2013-06-12 10:19:00,
2013-06-12 05:20:00,74.4,72.2,30.01,SSE,150,0.0,0.0,93,0.00,,,0.00,0.00,VWS V14.01,2013-06-12 10:20:00,
2013-06-12 05:21:00,74.4,72.2,30.02,SSE,150,0.0,0.0,93,0.00,,,0.00,0.00,VWS V14.01,2013-06-12 10:21:00,
2013-06-12 05:22:00,74.4,72.2,30.01,SSE,150,0.0,0.0,93,0.00,,,0.00,0.00,VWS V14.01,2013-06-12 10:22:00,
2013-06-12 05:23:00,74.4,72.2,30.02,SSE,150,0.0,0.0,93,0.00,,,0.00,0.00,VWS V14.01,2013-06-12 10:23:00,
2013-06-12 05:24:00,74.4,72.2,30.02,SSE,150,0.0,0.0,93,0.00,,,0.00,0.00,VWS V14.01,2013-06-12 10:24:00,
2013-06-12 05:25:00,74.3,72.2,30.01,SSE,150,0.0,0.0,93,0.00,,,0.00,0.00,VWS V14.01,2013-06-12 10:25:00,
2013-06-12 05:26:00,74.3,72.2,30.02,SSE,150,0.0,0.0,93,0.00,,,0.00,0.00,VWS V14.01,2013-06-12 10:26:00,
2013-06-12 05:27:00,74.3,72.2,30.02,SSE,150,0.0,0.0,93,0.00,,,0.00,0.00,VWS V14.01,2013-06-12 10:27:00,
2013-06-12 05:28:00,74.3,72.2,30.02,SSE,150,0.0,0.0,93,0.00,,,0.00,0.00,VWS V14.01,2013-06-12 10:28:00,
2013-06-12 05:29:00,74.3,72.2,30.02,SSE,150,0.0,0.0,93,0.00,,,0.00,0.00,VWS V14.01,2013-06-12 10:29:00,
2013-06-12 05:30:00,74.3,72.2,30.02,SSE,150,0.0,0.0,93,0.00,,,0.00,0.00,VWS V14.01,2013-06-12 10:30:00,
2013-06-12 05:31:00,74.3,72.2,30.02,SSE,150,0.0,0.0,93,0.00,,,0.00,0.00,VWS V14.01,2013-06-12 10:31:00,
2013-06-12 05:32:00,74.2,72.1,30.02,SSE,150,0.0,0.0,93,0.00,,,0.00,0.00,VWS V14.01,2013-06-12 10:32:00,
2013-06-12 05:33:00,74.2,72.1,30.02,SSE,150,0.0,0.0,93,0.00,,,0.00,0.00,VWS V14.01,2013-06-12 10:33:00,
2013-06-12 05:34:00,74.2,72.1,30.02,SSE,150,0.0,0.0,93,0.00,,,0.00,0.00,VWS V14.01,2013-06-12 10:34:00,
2013-06-12 05:35:00,74.1,71.9,30.02,SSE,150,0.0,0.0,93,0.00,,,0.00,0.00,VWS V14.01,2013-06-12 10:35:00,
2013-06-12 05:36:00,74.1,71.9,30.02,SSE,150,0.0,0.0,93,0.00,,,0.00,0.00,VWS V14.01,2013-06-12 10:36:00,
2013-06-12 05:37:00,74.1,71.9,30.02,SSE,150,0.0,0.0,93,0.00,,,0.00,0.00,VWS V14.01,2013-06-12 10:37:00,
2013-06-12 05:38:00,74.0,71.8,30.02,SSE,150,0.0,0.0,93,0.00,,,0.00,0.00,VWS V14.01,2013-06-12 10:38:00,
2013-06-12 05:39:00,74.0,71.8,30.02,SSE,150,0.0,0.0,93,0.00,,,0.00,0.00,VWS V14.01,2013-06-12 10:39:00,
2013-06-12 05:40:00,74.0,71.8,30.02,SSE,150,0.0,0.0,93,0.00,,,0.00,0.00,VWS V14.01,2013-06-12 10:40:00,
2013-06-12 05:41:00,74.0,71.8,30.02,SSE,150,0.0,0.0,93,0.00,,,0.00,0.00,VWS V14.01,2013-06-12 10:41:00,
2013-06-12 05:42:00,73.9,71.8,30.02,SSE,150,0.0,0.0,93,0.00,,,0.00,0.00,VWS V14.01,2013-06-12 10:42:00,
2013-06-12 05:43:00,73.9,71.8,30.02,SSE,150,0.0,0.0,93,0.00,,,0.00,0.00,VWS V14.01,2013-06-12 10:43:00,
2013-06-12 05:44:00,73.9,71.8,30.02,SSE,150,0.0,0.0,93,0.00,,,0.00,0.00,VWS V14.01,2013-06-12 10:44:00,
2013-06-12 05:45:00,73.9,71.8,30.02,SSE,150,0.0,0.0,93,0.00,,,0.00,0.00,VWS V14.01,2013-06-12 10:45:00,
2013-06-12 05:46:00,73.9,71.8,30.02,SSE,150,0.0,0.0,93,0.00,,,0.00,0.00,VWS V14.01,2013-06-12 10:46:00,
2013-06-12 05:47:00,73.8,71.7,30.02,SSE,150,0.0,0.0,93,0.00,,,0.00,0.00,VWS V14.01,2013-06-12 10:47:00,
2013-06-12 05:48:00,73.8,71.7,30.02,SSE,150,0.0,0.0,93,0.00,,,0.00,0.00,VWS V14.01,2013-06-12 10:48:00,
2013-06-12 05:49:00,73.8,71.7,30.02,SSE,150,0.0,0.0,93,0.00,,,0.00,0.00,VWS V14.01,2013-06-12 10:49:00,
2013-06-12 05:50:00,73.7,71.6,30.02,SSE,150,0.0,0.0,93,0.00,,,0.00,0.00,VWS V14.01,2013-06-12 10:50:00,
2013-06-12 05:51:00,73.7,71.6,30.02,SSE,150,0.0,0.0,93,0.00,,,0.00,0.00,VWS V14.01,2013-06-12 10:51:00,
2013-06-12 05:52:00,73.7,71.6,30.02,SSE,150,0.0,0.0,93,0.00,,,0.00,0.00,VWS V14.01,2013-06-12 10:52:00,
2013-06-12 05:53:00,73.7,71.6,30.02,SSE,150,0.0,0.0,93,0.00,,,0.00,0.00,VWS V14.01,2013-06-12 10:53:00,
2013-06-12 05:54:00,73.7,71.6,30.02,SSE,150,0.0,0.0,93,0.00,,,0.00,0.00,VWS V14.01,2013-06-12 10:54:00,
2013-06-12 05:55:00,73.7,71.6,30.02,SSE,150,0.0,0.0,93,0.00,,,0.00,0.00,VWS V14.01,2013-06-12 10:55:00,
2013-06-12 05:56:00,73.6,71.5,30.02,SSE,150,0.0,0.0,93,0.00,,,0.00,0.00,VWS V14.01,2013-06-12 10:56:00,
2013-06-12 05:57:00,73.6,71.5,30.02,SSE,150,0.0,0.0,93,0.00,,,0.00,0.00,VWS V14.01,2013-06-12 10:57:00,
2013-06-12 05:58:00,73.6,71.5,30.02,SSE,150,0.0,0.0,93,0.00,,,0.00,0.00,VWS V14.01,2013-06-12 10:58:00,
2013-06-12 05:59:00,73.6,71.5,30.02,SSE,150,0.0,0.0,93,0.00,,,0.00,0.00,VWS V14.01,2013-06-12 10:59:00,
2013-06-12 06:00:00,73.6,71.5,30.02,SSE,150,0.0,0.0,93,0.00,,,0.00,0.00,VWS V14.01,2013-06-12 11:00:00,
2013-06-12 06:01:00,73.5,71.4,30.02,SSE,150,0.0,0.0,93,0.00,,,0.00,0.00,VWS V14.01,2013-06-12 11:01:00,
2013-06-12 06:02:00,73.5,71.4,30.02,SSE,150,0.0,0.0,93,0.00,,,0.00,0.00,VWS V14.01,2013-06-12 11:02:00,
2013-06-12 06:03:00,73.5,71.4,30.02,SSE,150,0.0,0.0,93,0.00,,,0.00,0.00,VWS V14.01,2013-06-12 11:03:00,
2013-06-12 06:04:00,73.5,71.4,30.02,SSE,150,0.0,0.0,93,0.00,,,0.00,0.00,VWS V14.01,2013-06-12 11:04:00,
2013-06-12 06:05:00,73.5,71.4,30.02,SSE,150,0.0,0.0,93,0.00,,,0.00,0.00,VWS V14.01,2013-06-12 11:05:00,
2013-06-12 06:06:00,73.5,71.4,30.02,SSE,150,0.0,0.0,93,0.00,,,0.00,0.00,VWS V14.01,2013-06-12 11:06:00,
2013-06-12 06:07:00,73.5,71.4,30.02,SSE,150,0.0,0.0,93,0.00,,,0.00,0.00,VWS V14.01,2013-06-12 11:07:00,
2013-06-12 06:08:00,73.5,71.4,30.02,SSE,150,0.0,0.0,93,0.00,,,0.00,0.00,VWS V14.01,2013-06-12 11:08:00,
2013-06-12 06:09:00,73.5,71.4,30.02,SSE,150,0.0,0.0,93,0.00,,,0.00,0.00,VWS V14.01,2013-06-12 11:09:00,
2013-06-12 06:10:00,73.4,71.3,30.02,SSE,150,0.0,0.0,93,0.00,,,0.00,0.00,VWS V14.01,2013-06-12 11:10:00,
2013-06-12 06:11:00,73.5,71.4,30.02,SSE,150,0.0,0.0,93,0.00,,,0.00,0.00,VWS V14.01,2013-06-12 11:11:00,
2013-06-12 06:12:00,73.5,71.4,30.02,SSE,150,0.0,0.0,93,0.00,,,0.00,0.00,VWS V14.01,2013-06-12 11:12:00,
2013-06-12 06:13:00,73.4,71.3,30.02,SSE,150,0.0,0.0,93,0.00,,,0.00,0.00,VWS V14.01,2013-06-12 11:13:00,
2013-06-12 06:14:00,73.4,71.3,30.02,SSE,150,0.0,0.0,93,0.00,,,0.00,0.00,VWS V14.01,2013-06-12 11:14:00,
2013-06-12 06:15:00,73.4,71.3,30.02,SSE,150,0.0,0.0,93,0.00,,,0.00,0.00,VWS V14.01,2013-06-12 11:15:00,
2013-06-12 06:16:00,73.4,71.3,30.03,SSE,150,0.0,0.0,93,0.00,,,0.00,0.00,VWS V14.01,2013-06-12 11:16:00,
2013-06-12 06:17:00,73.4,71.3,30.02,SSE,150,0.0,0.0,93,0.00,,,0.00,0.00,VWS V14.01,2013-06-12 11:17:00,
2013-06-12 06:18:00,73.4,71.3,30.03,SSE,150,0.0,0.0,93,0.00,,,0.00,0.00,VWS V14.01,2013-06-12 11:18:00,
2013-06-12 06:19:00,73.4,71.3,30.03,SSE,150,0.0,0.0,93,0.00,,,0.00,0.00,VWS V14.01,2013-06-12 11:19:00,
2013-06-12 06:20:00,73.4,71.3,30.03,SSE,150,0.0,0.0,93,0.00,,,0.00,0.00,VWS V14.01,2013-06-12 11:20:00,
2013-06-12 06:21:00,73.4,71.3,30.03,SSE,150,0.0,0.0,93,0.00,,,0.00,0.00,VWS V14.01,2013-06-12 11:21:00,
2013-06-12 06:22:00,73.4,71.3,30.03,SSE,150,0.0,0.0,93,0.00,,,0.00,0.00,VWS V14.01,2013-06-12 11:22:00,
2013-06-12 06:23:00,73.4,71.3,30.03,SSE,150,0.0,0.0,93,0.00,,,0.00,0.00,VWS V14.01,2013-06-12 11:23:00,
2013-06-12 06:24:00,73.4,71.3,30.03,SSE,150,0.0,0.0,93,0.00,,,0.00,0.00,VWS V14.01,2013-06-12 11:24:00,
2013-06-12 06:25:00,73.4,71.3,30.03,SSE,150,0.0,0.0,93,0.00,,,0.00,5.00,VWS V14.01,2013-06-12 11:25:00,
2013-06-12 06:26:00,73.4,71.3,30.03,SSE,150,0.0,0.0,93,0.00,,,0.00,5.00,VWS V14.01,2013-06-12 11:26:00,
2013-06-12 06:27:00,73.4,71.3,30.03,SSE,150,0.0,0.0,93,0.00,,,0.00,5.00,VWS V14.01,2013-06-12 11:27:00,
2013-06-12 06:28:00,73.4,71.3,30.03,SSE,150,0.0,0.0,93,0.00,,,0.00,5.00,VWS V14.01,2013-06-12 11:28:00,
2013-06-12 06:29:00,73.4,71.3,30.03,SSE,150,0.0,0.0,93,0.00,,,0.00,7.00,VWS V14.01,2013-06-12 11:29:00,
2013-06-12 06:30:00,73.4,71.3,30.03,SSE,150,0.0,0.0,93,0.00,,,0.00,7.00,VWS V14.01,2013-06-12 11:30:00,
2013-06-12 06:31:00,73.4,71.3,30.03,SSE,150,0.0,0.0,93,0.00,,,0.00,7.00,VWS V14.01,2013-06-12 11:31:00,
2013-06-12 06:32:00,73.4,71.3,30.03,SSE,150,0.0,0.0,93,0.00,,,0.00,7.00,VWS V14.01,2013-06-12 11:32:00,
2013-06-12 06:33:00,73.4,71.3,30.03,SSE,150,0.0,0.0,93,0.00,,,0.00,9.00,VWS V14.01,2013-06-12 11:33:00,
2013-06-12 06:34:00,73.4,71.3,30.03,SSE,150,0.0,0.0,93,0.00,,,0.00,9.00,VWS V14.01,2013-06-12 11:34:00,
2013-06-12 06:35:00,73.4,71.3,30.03,SSE,150,0.0,0.0,93,0.00,,,0.00,11.00,VWS V14.01,2013-06-12 11:35:00,
2013-06-12 06:36:00,73.4,71.3,30.03,SSE,150,0.0,0.0,93,0.00,,,0.00,11.00,VWS V14.01,2013-06-12 11:36:00,
2013-06-12 06:37:00,73.4,71.3,30.03,SSE,150,0.0,0.0,93,0.00,,,0.00,11.00,VWS V14.01,2013-06-12 11:37:00,
2013-06-12 06:38:00,73.4,71.3,30.03,SSE,147,0.0,0.0,93,0.00,,,0.00,12.00,VWS V14.01,2013-06-12 11:38:00,
2013-06-12 06:39:00,73.4,71.3,30.03,SSE,147,0.0,0.0,93,0.00,,,0.00,12.00,VWS V14.01,2013-06-12 11:39:00,
2013-06-12 06:40:00,73.4,71.3,30.03,SSE,147,0.0,0.0,93,0.00,,,0.00,12.00,VWS V14.01,2013-06-12 11:40:00,
2013-06-12 06:41:00,73.4,71.3,30.03,SSE,147,0.0,0.0,93,0.00,,,0.00,14.00,VWS V14.01,2013-06-12 11:41:00,
2013-06-12 06:42:00,73.4,71.3,30.03,SSE,147,0.0,0.0,93,0.00,,,0.00,14.00,VWS V14.01,2013-06-12 11:42:00,
2013-06-12 06:43:00,73.4,71.3,30.03,SSE,147,0.0,0.0,93,0.00,,,0.00,16.00,VWS V14.01,2013-06-12 11:43:00,
2013-06-12 06:44:00,73.4,71.3,30.03,SSE,147,0.0,0.0,93,0.00,,,0.00,16.00,VWS V14.01,2013-06-12 11:44:00,
2013-06-12 06:45:00,73.4,71.3,30.03,SSE,147,0.0,0.0,93,0.00,,,0.00,16.00,VWS V14.01,2013-06-12 11:45:00,
2013-06-12 06:46:00,73.4,71.3,30.03,SSE,147,0.0,0.0,93,0.00,,,0.00,18.00,VWS V14.01,2013-06-12 11:46:00,
2013-06-12 06:47:00,73.4,71.3,30.03,SSE,147,0.0,0.0,93,0.00,,,0.00,18.00,VWS V14.01,2013-06-12 11:47:00,
2013-06-12 06:48:00,73.4,71.3,30.03,SSE,147,0.0,0.0,93,0.00,,,0.00,19.00,VWS V14.01,2013-06-12 11:48:00,
2013-06-12 06:49:00,73.4,71.3,30.03,SSE,147,0.0,0.0,93,0.00,,,0.00,19.00,VWS V14.01,2013-06-12 11:49:00,
2013-06-12 06:50:00,73.4,71.3,30.03,SSE,147,0.0,0.0,93,0.00,,,0.00,19.00,VWS V14.01,2013-06-12 11:50:00,
2013-06-12 06:51:00,73.4,71.3,30.03,SSE,147,0.0,0.0,93,0.00,,,0.00,21.00,VWS V14.01,2013-06-12 11:51:00,
2013-06-12 06:52:00,73.4,71.3,30.03,SSE,147,0.0,0.0,93,0.00,,,0.00,21.00,VWS V14.01,2013-06-12 11:52:00,
2013-06-12 06:53:00,73.4,71.3,30.03,SSE,147,0.0,0.0,93,0.00,,,0.00,21.00,VWS V14.01,2013-06-12 11:53:00,
2013-06-12 06:54:00,73.4,71.3,30.03,SSE,147,0.0,0.0,93,0.00,,,0.00,21.00,VWS V14.01,2013-06-12 11:54:00,
2013-06-12 06:55:00,73.4,71.3,30.03,SSE,147,0.0,0.0,93,0.00,,,0.00,23.00,VWS V14.01,2013-06-12 11:55:00,
2013-06-12 06:56:00,73.4,71.3,30.03,SSE,147,0.0,0.0,93,0.00,,,0.00,25.00,VWS V14.01,2013-06-12 11:56:00,
2013-06-12 06:57:00,73.4,71.3,30.03,SSE,147,0.0,0.0,93,0.00,,,0.00,25.00,VWS V14.01,2013-06-12 11:57:00,
2013-06-12 06:58:00,73.4,71.3,30.03,SSE,147,0.0,0.0,93,0.00,,,0.00,26.00,VWS V14.01,2013-06-12 11:58:00,
2013-06-12 06:59:00,73.4,71.3,30.03,SSE,147,0.0,0.0,93,0.00,,,0.00,26.00,VWS V14.01,2013-06-12 11:59:00,
2013-06-12 07:00:00,73.4,71.3,30.03,SSE,147,0.0,0.0,93,0.00,,,0.00,26.00,VWS V14.01,2013-06-12 12:00:00,
2013-06-12 07:01:00,73.3,71.2,30.03,SSE,147,0.0,0.0,93,0.00,,,0.00,28.00,VWS V14.01,2013-06-12 12:01:00,
2013-06-12 07:02:00,73.3,71.2,30.03,SSE,147,0.0,0.0,93,0.00,,,0.00,28.00,VWS V14.01,2013-06-12 12:02:00,
2013-06-12 07:03:00,73.4,71.3,30.03,SSE,147,0.0,0.0,93,0.00,,,0.00,28.00,VWS V14.01,2013-06-12 12:03:00,
2013-06-12 07:04:00,73.4,71.3,30.03,SSE,147,0.0,0.0,93,0.00,,,0.00,30.00,VWS V14.01,2013-06-12 12:04:00,
2013-06-12 07:05:00,73.4,71.3,30.03,SSE,147,0.0,0.0,93,0.00,,,0.00,30.00,VWS V14.01,2013-06-12 12:05:00,
2013-06-12 07:06:00,73.4,71.3,30.03,SSE,147,0.0,0.0,93,0.00,,,0.00,30.00,VWS V14.01,2013-06-12 12:06:00,
2013-06-12 07:07:00,73.4,71.3,30.03,SSE,147,0.0,0.0,93,0.00,,,0.00,30.00,VWS V14.01,2013-06-12 12:07:00,
2013-06-12 07:08:00,73.4,71.3,30.03,SSE,147,0.0,0.0,93,0.00,,,0.00,32.00,VWS V14.01,2013-06-12 12:08:00,
2013-06-12 07:09:00,73.4,71.3,30.03,SSE,147,0.0,0.0,93,0.00,,,0.00,30.00,VWS V14.01,2013-06-12 12:09:00,
2013-06-12 07:10:00,73.4,71.3,30.03,SSE,147,0.0,0.0,93,0.00,,,0.00,32.00,VWS V14.01,2013-06-12 12:10:00,
2013-06-12 07:11:00,73.4,71.3,30.03,SSE,147,0.0,0.0,93,0.00,,,0.00,32.00,VWS V14.01,2013-06-12 12:11:00,
2013-06-12 07:12:00,73.4,71.6,30.03,SSE,147,0.0,0.0,94,0.00,,,0.00,33.00,VWS V14.01,2013-06-12 12:12:00,
2013-06-12 07:13:00,73.5,71.7,30.03,SSE,147,0.0,0.0,94,0.00,,,0.00,33.00,VWS V14.01,2013-06-12 12:13:00,
2013-06-12 07:14:00,73.5,71.7,30.03,SSE,147,0.0,0.0,94,0.00,,,0.00,33.00,VWS V14.01,2013-06-12 12:14:00,
2013-06-12 07:15:00,73.6,71.8,30.03,SSE,147,0.0,0.0,94,0.00,,,0.00,33.00,VWS V14.01,2013-06-12 12:15:00,
2013-06-12 07:16:00,73.5,71.7,30.03,SSE,147,0.0,0.0,94,0.00,,,0.00,35.00,VWS V14.01,2013-06-12 12:16:00,
2013-06-12 07:17:00,73.6,71.8,30.03,SSE,147,0.0,0.0,94,0.00,,,0.00,35.00,VWS V14.01,2013-06-12 12:17:00,
2013-06-12 07:18:00,73.7,71.9,30.04,SSE,147,0.0,0.0,94,0.00,,,0.00,35.00,VWS V14.01,2013-06-12 12:18:00,
2013-06-12 07:19:00,73.7,71.9,30.04,SSE,147,0.0,0.0,94,0.00,,,0.00,35.00,VWS V14.01,2013-06-12 12:19:00,
2013-06-12 07:20:00,73.7,71.9,30.04,SSE,147,0.0,0.0,94,0.00,,,0.00,37.00,VWS V14.01,2013-06-12 12:20:00,
2013-06-12 07:21:00,73.7,71.9,30.03,SSE,147,0.0,0.0,94,0.00,,,0.00,37.00,VWS V14.01,2013-06-12 12:21:00,
2013-06-12 07:22:00,73.8,72.0,30.03,SSE,147,1.3,1.3,94,0.00,,,0.00,37.00,VWS V14.01,2013-06-12 12:22:00,
2013-06-12 07:23:00,73.9,72.1,30.03,SSE,147,0.0,0.0,94,0.00,,,0.00,39.00,VWS V14.01,2013-06-12 12:23:00,
2013-06-12 07:24:00,73.9,72.1,30.03,SSE,147,0.0,0.0,94,0.00,,,0.00,39.00,VWS V14.01,2013-06-12 12:24:00,
2013-06-12 07:25:00,73.9,72.1,30.03,SSE,147,0.0,0.0,94,0.00,,,0.00,39.00,VWS V14.01,2013-06-12 12:25:00,
2013-06-12 07:26:00,74.0,72.2,30.03,SSE,147,0.0,0.0,94,0.00,,,0.00,39.00,VWS V14.01,2013-06-12 12:26:00,
2013-06-12 07:27:00,74.0,72.2,30.03,SSE,147,0.0,0.0,94,0.00,,,0.00,40.00,VWS V14.01,2013-06-12 12:27:00,
2013-06-12 07:28:00,74.1,72.3,30.03,SSE,147,0.0,0.0,94,0.00,,,0.00,42.00,VWS V14.01,2013-06-12 12:28:00,
2013-06-12 07:29:00,74.1,72.3,30.03,SSE,147,0.0,0.0,94,0.00,,,0.00,42.00,VWS V14.01,2013-06-12 12:29:00,
2013-06-12 07:30:00,74.1,72.3,30.04,SSE,147,0.0,0.0,94,0.00,,,0.00,42.00,VWS V14.01,2013-06-12 12:30:00,
2013-06-12 07:31:00,74.2,72.4,30.04,SSE,147,0.0,0.0,94,0.00,,,0.00,44.00,VWS V14.01,2013-06-12 12:31:00,
2013-06-12 07:32:00,74.2,72.4,30.04,SSE,147,0.0,0.0,94,0.00,,,0.00,44.00,VWS V14.01,2013-06-12 12:32:00,
2013-06-12 07:33:00,74.3,72.5,30.04,SSE,147,0.0,0.0,94,0.00,,,0.00,46.00,VWS V14.01,2013-06-12 12:33:00,
2013-06-12 07:34:00,74.3,72.5,30.04,SSE,147,0.0,0.0,94,0.00,,,0.00,46.00,VWS V14.01,2013-06-12 12:34:00,
2013-06-12 07:35:00,74.3,72.5,30.04,SSE,147,0.0,0.0,94,0.00,,,0.00,46.00,VWS V14.01,2013-06-12 12:35:00,
2013-06-12 07:36:00,74.4,72.6,30.04,SSE,147,0.0,0.0,94,0.00,,,0.00,46.00,VWS V14.01,2013-06-12 12:36:00,
2013-06-12 07:37:00,74.4,72.6,30.04,SSE,147,0.0,0.0,94,0.00,,,0.00,46.00,VWS V14.01,2013-06-12 12:37:00,
2013-06-12 07:38:00,74.5,72.7,30.04,SSE,147,0.0,0.0,94,0.00,,,0.00,47.00,VWS V14.01,2013-06-12 12:38:00,
2013-06-12 07:39:00,74.5,72.7,30.04,SSE,147,0.0,0.0,94,0.00,,,0.00,47.00,VWS V14.01,2013-06-12 12:39:00,
2013-06-12 07:40:00,74.5,72.7,30.04,SSE,147,0.0,0.0,94,0.00,,,0.00,47.00,VWS V14.01,2013-06-12 12:40:00,
2013-06-12 07:41:00,74.6,72.8,30.04,SSE,147,0.0,0.0,94,0.00,,,0.00,47.00,VWS V14.01,2013-06-12 12:41:00,
2013-06-12 07:42:00,74.6,72.8,30.04,SSE,147,0.0,0.0,94,0.00,,,0.00,49.00,VWS V14.01,2013-06-12 12:42:00,
2013-06-12 07:43:00,74.6,72.8,30.04,SSE,147,0.0,0.0,94,0.00,,,0.00,49.00,VWS V14.01,2013-06-12 12:43:00,
2013-06-12 07:44:00,74.7,72.9,30.04,SSE,147,0.0,2.6,94,0.00,,,0.00,49.00,VWS V14.01,2013-06-12 12:44:00,
2013-06-12 07:45:00,74.7,72.9,30.04,SSE,147,0.0,0.0,94,0.01,,,0.01,51.00,VWS V14.01,2013-06-12 12:45:00,
2013-06-12 07:46:00,74.8,73.0,30.04,SSE,147,1.3,1.3,94,0.01,,,0.01,51.00,VWS V14.01,2013-06-12 12:46:00,
2013-06-12 07:47:00,74.9,73.1,30.04,SSE,147,0.0,2.6,94,0.01,,,0.01,53.00,VWS V14.01,2013-06-12 12:47:00,
2013-06-12 07:48:00,75.0,73.2,30.03,SSE,147,0.0,0.0,94,0.01,,,0.01,53.00,VWS V14.01,2013-06-12 12:48:00,
2013-06-12 07:49:00,75.0,73.2,30.03,SSE,147,0.0,0.0,94,0.01,,,0.01,53.00,VWS V14.01,2013-06-12 12:49:00,
2013-06-12 07:50:00,75.0,73.2,30.04,SSE,147,0.0,0.0,94,0.01,,,0.01,53.00,VWS V14.01,2013-06-12 12:50:00,
2013-06-12 07:51:00,75.1,73.3,30.04,SSE,147,1.3,1.3,94,0.01,,,0.01,53.00,VWS V14.01,2013-06-12 12:51:00,
2013-06-12 07:52:00,75.1,73.3,30.04,SSE,147,0.0,1.3,94,0.01,,,0.01,53.00,VWS V14.01,2013-06-12 12:52:00,
2013-06-12 07:53:00,75.2,73.4,30.04,SSE,147,0.0,1.3,94,0.01,,,0.01,54.00,VWS V14.01,2013-06-12 12:53:00,
2013-06-12 07:54:00,75.3,73.5,30.04,SSE,147,2.6,2.6,94,0.01,,,0.01,54.00,VWS V14.01,2013-06-12 12:54:00,
2013-06-12 07:55:00,75.3,73.5,30.04,SSE,147,0.0,2.6,94,0.01,,,0.01,54.00,VWS V14.01,2013-06-12 12:55:00,
2013-06-12 07:56:00,75.4,73.6,30.04,SSE,147,0.0,1.3,94,0.01,,,0.01,54.00,VWS V14.01,2013-06-12 12:56:00,
2013-06-12 07:57:00,75.4,73.6,30.04,SSE,147,2.6,2.6,94,0.01,,,0.01,54.00,VWS V14.01,2013-06-12 12:57:00,
2013-06-12 07:58:00,75.5,73.7,30.04,SSE,147,0.0,5.2,94,0.01,,,0.01,54.00,VWS V14.01,2013-06-12 12:58:00,
2013-06-12 07:59:00,75.5,73.7,30.04,SSE,147,1.3,5.2,94,0.01,,,0.01,54.00,VWS V14.01,2013-06-12 12:59:00,
2013-06-12 08:00:00,75.6,73.8,30.04,SSE,154,1.3,7.8,94,0.01,,,0.01,54.00,VWS V14.01,2013-06-12 13:00:00,
2013-06-12 08:01:00,75.7,73.9,30.04,SSE,155,6.5,9.1,94,0.01,,,0.01,54.00,VWS V14.01,2013-06-12 13:01:00,
2013-06-12 08:02:00,75.7,73.9,30.04,SSE,156,0.0,6.5,94,0.01,,,0.01,56.00,VWS V14.01,2013-06-12 13:02:00,
2013-06-12 08:03:00,75.8,73.9,30.04,SSE,155,0.0,5.2,94,0.01,,CLR,0.01,56.00,VWS V14.01,2013-06-12 13:03:00,
2013-06-12 08:04:00,75.8,73.9,30.04,SSE,155,1.3,5.2,94,0.01,,,0.01,56.00,VWS V14.01,2013-06-12 13:04:00,
2013-06-12 08:05:00,75.9,74.1,30.04,SSE,162,1.3,7.8,94,0.01,,,0.01,56.00,VWS V14.01,2013-06-12 13:05:00,
2013-06-12 08:06:00,75.9,74.1,30.04,SSE,162,0.0,2.6,94,0.01,,,0.01,56.00,VWS V14.01,2013-06-12 13:06:00,
2013-06-12 08:07:00,76.0,74.2,30.04,SSE,158,6.5,9.1,94,0.01,,,0.01,58.00,VWS V14.01,2013-06-12 13:07:00,
2013-06-12 08:08:00,76.1,74.2,30.04,SSE,152,3.9,6.5,94,0.01,,CLR,0.01,58.00,VWS V14.01,2013-06-12 13:08:00,
2013-06-12 08:09:00,76.0,74.2,30.04,SSE,151,0.0,6.5,94,0.01,,,0.01,58.00,VWS V14.01,2013-06-12 13:09:00,
2013-06-12 08:10:00,76.0,74.2,30.04,SSE,151,1.3,5.2,94,0.01,,,0.01,60.00,VWS V14.01,2013-06-12 13:10:00,
2013-06-12 08:11:00,76.1,74.2,30.04,SSE,150,0.0,6.5,94,0.01,,,0.01,60.00,VWS V14.01,2013-06-12 13:11:00,
2013-06-12 08:12:00,76.1,74.2,30.04,SSE,150,2.6,3.9,94,0.01,,,0.01,60.00,VWS V14.01,2013-06-12 13:12:00,
2013-06-12 08:13:00,76.2,74.3,30.04,SSE,156,3.9,7.8,94,0.01,,CLR,0.01,72.00,VWS V14.01,2013-06-12 13:13:00,
2013-06-12 08:14:00,76.2,74.3,30.04,SSE,154,3.9,7.8,94,0.01,,,0.01,72.00,VWS V14.01,2013-06-12 13:14:00,
2013-06-12 08:15:00,76.2,74.3,30.04,SSE,150,3.9,7.8,94,0.01,,,0.01,79.00,VWS V14.01,2013-06-12 13:15:00,
2013-06-12 08:16:00,76.2,74.3,30.04,SSE,151,0.0,3.9,94,0.01,,,0.01,104.00,VWS V14.01,2013-06-12 13:16:00,
2013-06-12 08:17:00,76.2,74.3,30.04,SSE,152,2.6,6.5,94,0.01,,,0.01,144.00,VWS V14.01,2013-06-12 13:17:00,
2013-06-12 08:18:00,76.3,74.4,30.04,SSE,154,5.2,7.8,94,0.01,,CLR,0.01,181.00,VWS V14.01,2013-06-12 13:18:00,
2013-06-12 08:19:00,76.3,74.4,30.04,SSE,154,5.2,7.8,94,0.01,,,0.01,178.00,VWS V14.01,2013-06-12 13:19:00,
2013-06-12 08:20:00,76.4,74.6,30.04,SSE,155,3.9,9.1,94,0.01,,,0.01,125.00,VWS V14.01,2013-06-12 13:20:00,
2013-06-12 08:21:00,76.4,74.6,30.04,SSE,156,3.9,6.5,94,0.01,,,0.01,156.00,VWS V14.01,2013-06-12 13:21:00,
2013-06-12 08:22:00,76.4,74.6,30.04,SSE,158,0.0,7.8,94,0.01,,,0.01,230.00,VWS V14.01,2013-06-12 13:22:00,
2013-06-12 08:23:00,76.5,74.7,30.04,SSE,154,9.1,9.1,94,0.01,,CLR,0.01,223.00,VWS V14.01,2013-06-12 13:23:00,
2013-06-12 08:24:00,76.5,74.7,30.04,SSE,150,5.2,9.1,94,0.01,,,0.01,139.00,VWS V14.01,2013-06-12 13:24:00,
2013-06-12 08:25:00,76.5,74.7,30.04,SSE,158,6.5,7.8,94,0.01,,,0.01,107.00,VWS V14.01,2013-06-12 13:25:00,
2013-06-12 08:26:00,76.6,74.8,30.04,SSE,151,9.1,10.4,94,0.01,,,0.01,121.00,VWS V14.01,2013-06-12 13:26:00,
2013-06-12 08:27:00,76.6,74.8,30.04,SSE,156,1.3,9.1,94,0.01,,,0.01,169.00,VWS V14.01,2013-06-12 13:27:00,
2013-06-12 08:28:00,76.7,74.8,30.04,SSE,155,0.0,7.8,94,0.01,,CLR,0.01,265.00,VWS V14.01,2013-06-12 13:28:00,
2013-06-12 08:29:00,76.7,74.8,30.04,SSE,155,0.0,7.8,94,0.01,,,0.01,265.00,VWS V14.01,2013-06-12 13:29:00,
2013-06-12 08:30:00,76.7,74.8,30.04,SSE,155,0.0,5.2,94,0.01,,,0.01,281.00,VWS V14.01,2013-06-12 13:30:00,
2013-06-12 08:31:00,76.8,74.9,30.04,SSE,150,11.7,14.3,94,0.01,,,0.01,288.00,VWS V14.01,2013-06-12 13:31:00,
2013-06-12 08:32:00,76.8,74.9,30.04,SSE,150,0.0,11.7,94,0.01,,,0.01,294.00,VWS V14.01,2013-06-12 13:32:00,
2013-06-12 08:33:00,76.9,75.1,30.04,SE,145,0.0,7.8,94,0.01,,CLR,0.01,295.00,VWS V14.01,2013-06-12 13:33:00,
2013-06-12 08:34:00,76.9,75.1,30.04,SE,145,0.0,7.8,94,0.01,,,0.01,295.00,VWS V14.01,2013-06-12 13:34:00,
2013-06-12 08:35:00,77.0,75.1,30.04,SE,145,0.0,2.6,94,0.01,,,0.01,297.00,VWS V14.01,2013-06-12 13:35:00,
2013-06-12 08:36:00,77.1,75.2,30.04,SE,146,5.2,6.5,94,0.01,,,0.01,297.00,VWS V14.01,2013-06-12 13:36:00,
2013-06-12 08:37:00,77.2,75.7,30.04,SE,139,1.3,10.4,95,0.01,,,0.01,302.00,VWS V14.01,2013-06-12 13:37:00,
2013-06-12 08:38:00,77.4,75.9,30.05,SE,141,5.2,6.5,95,0.01,,CLR,0.01,311.00,VWS V14.01,2013-06-12 13:38:00,
2013-06-12 08:39:00,77.4,75.9,30.04,SE,141,5.2,6.5,95,0.01,,,0.01,311.00,VWS V14.01,2013-06-12 13:39:00,
2013-06-12 08:40:00,77.4,75.9,30.04,SE,146,3.9,6.5,95,0.01,,,0.01,315.00,VWS V14.01,2013-06-12 13:40:00,
2013-06-12 08:41:00,77.5,76.0,30.05,SE,142,9.1,11.7,95,0.01,,,0.01,313.00,VWS V14.01,2013-06-12 13:41:00,
2013-06-12 08:42:00,77.6,76.1,30.05,SE,139,0.0,9.1,95,0.01,,,0.01,316.00,VWS V14.01,2013-06-12 13:42:00,
2013-06-12 08:43:00,77.7,75.8,30.04,SSE,152,6.5,13.0,94,0.01,,CLR,0.01,325.00,VWS V14.01,2013-06-12 13:43:00,
2013-06-12 08:44:00,77.7,75.8,30.04,SSE,152,7.8,13.0,94,0.01,,,0.01,325.00,VWS V14.01,2013-06-12 13:44:00,
2013-06-12 08:45:00,77.8,75.9,30.05,ESE,122,11.7,14.3,94,0.01,,,0.01,316.00,VWS V14.01,2013-06-12 13:45:00,
2013-06-12 08:46:00,77.8,75.9,30.05,SSE,147,3.9,11.7,94,0.00,,,0.01,311.00,VWS V14.01,2013-06-12 13:46:00,
2013-06-12 08:47:00,77.9,76.0,30.05,SE,140,3.9,7.8,94,0.00,,,0.01,311.00,VWS V14.01,2013-06-12 13:47:00,
2013-06-12 08:48:00,78.0,76.5,30.05,SSE,168,3.9,7.8,95,0.00,,CLR,0.01,304.00,VWS V14.01,2013-06-12 13:48:00,
2013-06-12 08:49:00,78.0,76.5,30.04,SSE,168,2.6,7.8,95,0.00,,,0.01,304.00,VWS V14.01,2013-06-12 13:49:00,
2013-06-12 08:50:00,78.1,76.6,30.05,South,179,9.1,9.1,95,0.00,,,0.01,279.00,VWS V14.01,2013-06-12 13:50:00,
2013-06-12 08:51:00,78.2,76.3,30.05,SSE,163,9.1,10.4,94,0.00,,,0.01,304.00,VWS V14.01,2013-06-12 13:51:00,
2013-06-12 08:52:00,78.2,76.3,30.05,SSE,156,2.6,9.1,94,0.00,,,0.01,329.00,VWS V14.01,2013-06-12 13:52:00,
2013-06-12 08:53:00,78.3,76.4,30.05,SSE,161,0.0,6.5,94,0.00,,CLR,0.01,362.00,VWS V14.01,2013-06-12 13:53:00,
2013-06-12 08:54:00,78.3,76.4,30.05,SSE,161,0.0,6.5,94,0.00,,,0.01,362.00,VWS V14.01,2013-06-12 13:54:00,
2013-06-12 08:55:00,78.4,76.5,30.05,SSE,161,0.0,0.0,94,0.00,,,0.01,364.00,VWS V14.01,2013-06-12 13:55:00,
2013-06-12 08:56:00,78.5,76.6,30.05,SE,139,6.5,11.7,94,0.00,,,0.01,357.00,VWS V14.01,2013-06-12 13:56:00,
2013-06-12 08:57:00,78.6,76.7,30.05,SE,140,0.0,9.1,94,0.00,,,0.01,357.00,VWS V14.01,2013-06-12 13:57:00,
2013-06-12 08:58:00,78.7,76.8,30.05,SE,141,11.7,11.7,94,0.00,,CLR,0.01,367.00,VWS V14.01,2013-06-12 13:58:00,
2013-06-12 08:59:00,78.7,76.8,30.05,SE,140,10.4,11.7,94,0.00,,,0.01,355.00,VWS V14.01,2013-06-12 13:59:00,
2013-06-12 09:00:00,78.8,76.9,30.05,SSE,149,1.3,14.3,94,0.00,,,0.01,364.00,VWS V14.01,2013-06-12 14:00:00,
2013-06-12 09:01:00,78.8,76.9,30.05,SSE,150,3.9,5.2,94,0.00,,,0.01,399.00,VWS V14.01,2013-06-12 14:01:00,
2013-06-12 09:02:00,78.8,76.9,30.05,SSE,154,3.9,7.8,94,0.00,,,0.01,401.00,VWS V14.01,2013-06-12 14:02:00,
2013-06-12 09:03:00,78.9,77.0,30.05,SSE,150,5.2,9.1,94,0.00,,SCT014,0.01,408.00,VWS V14.01,2013-06-12 14:03:00,
2013-06-12 09:04:00,78.9,77.0,30.05,SSE,150,5.2,9.1,94,0.00,,,0.01,408.00,VWS V14.01,2013-06-12 14:04:00,
2013-06-12 09:05:00,79.0,77.1,30.05,SSE,147,5.2,9.1,94,0.00,,,0.01,118.00,VWS V14.01,2013-06-12 14:05:00,
2013-06-12 09:06:00,79.0,77.1,30.05,SSE,149,3.9,10.4,94,0.00,,,0.01,383.00,VWS V14.01,2013-06-12 14:06:00,
2013-06-12 09:07:00,79.1,77.2,30.05,SE,145,2.6,7.8,94,0.00,,,0.01,415.00,VWS V14.01,2013-06-12 14:07:00,
2013-06-12 09:08:00,79.3,77.4,30.05,SSE,162,2.6,7.8,94,0.00,,SCT014,0.01,399.00,VWS V14.01,2013-06-12 14:08:00,
2013-06-12 09:09:00,79.3,77.4,30.05,SSE,162,2.6,7.8,94,0.00,,,0.01,399.00,VWS V14.01,2013-06-12 14:09:00,
2013-06-12 09:10:00,79.4,77.5,30.05,SSE,162,1.3,3.9,94,0.00,,,0.01,443.00,VWS V14.01,2013-06-12 14:10:00,
2013-06-12 09:11:00,79.6,77.7,30.05,SSE,162,0.0,5.2,94,0.00,,,0.01,429.00,VWS V14.01,2013-06-12 14:11:00,
2013-06-12 09:12:00,79.7,77.8,30.05,SE,139,5.2,13.0,94,0.00,,,0.01,429.00,VWS V14.01,2013-06-12 14:12:00,
2013-06-12 09:13:00,79.9,77.7,30.05,South,169,0.0,6.5,93,0.00,,SCT014,0.01,229.00,VWS V14.01,2013-06-12 14:13:00,
2013-06-12 09:14:00,79.9,77.7,30.05,South,169,1.3,6.5,93,0.00,,,0.01,229.00,VWS V14.01,2013-06-12 14:14:00,
2013-06-12 09:15:00,80.0,77.5,30.05,ESE,123,3.9,14.3,92,0.00,,,0.01,229.00,VWS V14.01,2013-06-12 14:15:00,
2013-06-12 09:16:00,80.1,77.6,30.05,SSE,152,14.3,15.6,92,0.00,,,0.01,362.00,VWS V14.01,2013-06-12 14:16:00,
2013-06-12 09:17:00,80.3,77.8,30.05,SSE,153,6.5,14.3,92,0.00,,,0.01,362.00,VWS V14.01,2013-06-12 14:17:00,
2013-06-12 09:18:00,80.5,78.0,30.05,SSE,148,11.7,14.3,92,0.00,,SCT014,0.01,167.00,VWS V14.01,2013-06-12 14:18:00,
2013-06-12 09:19:00,80.5,78.0,30.05,SE,145,11.7,14.3,92,0.00,,,0.01,167.00,VWS V14.01,2013-06-12 14:19:00,
2013-06-12 09:20:00,80.6,77.7,30.05,SE,140,11.7,14.3,91,0.00,,,0.01,237.00,VWS V14.01,2013-06-12 14:20:00,
2013-06-12 09:21:00,80.7,77.5,30.05,SSE,150,7.8,11.7,90,0.00,,,0.01,237.00,VWS V14.01,2013-06-12 14:21:00,
2013-06-12 09:22:00,80.8,77.6,30.05,SSE,147,9.1,13.0,90,0.00,,,0.01,237.00,VWS V14.01,2013-06-12 14:22:00,
2013-06-12 09:23:00,81.0,77.5,30.05,South,170,5.2,9.1,89,0.00,,SCT014,0.01,225.00,VWS V14.01,2013-06-12 14:23:00,
2013-06-12 09:24:00,81.0,77.5,30.05,South,170,5.2,9.1,89,0.00,,,0.01,225.00,VWS V14.01,2013-06-12 14:24:00,
2013-06-12 09:25:00,81.1,77.6,30.05,SSE,168,7.8,9.1,89,0.00,,,0.01,153.00,VWS V14.01,2013-06-12 14:25:00,
2013-06-12 09:26:00,81.1,77.2,30.05,SSE,164,1.3,7.8,88,0.00,,,0.01,137.00,VWS V14.01,2013-06-12 14:26:00,
2013-06-12 09:27:00,81.2,77.3,30.05,ESE,123,7.8,11.7,88,0.00,,,0.01,146.00,VWS V14.01,2013-06-12 14:27:00,
2013-06-12 09:28:00,81.4,77.2,30.05,SSE,152,2.6,9.1,87,0.00,,SCT014,0.01,146.00,VWS V14.01,2013-06-12 14:28:00,
2013-06-12 09:29:00,81.4,77.2,30.05,SSE,152,2.6,9.1,87,0.00,,,0.01,146.00,VWS V14.01,2013-06-12 14:29:00,
2013-06-12 09:30:00,81.5,77.3,30.05,SSE,155,6.5,11.7,87,0.00,,,0.01,146.00,VWS V14.01,2013-06-12 14:30:00,
2013-06-12 09:31:00,81.6,77.4,30.05,SSE,153,2.6,7.8,87,0.00,,,0.01,176.00,VWS V14.01,2013-06-12 14:31:00,
2013-06-12 09:32:00,81.6,77.0,30.05,SSE,162,7.8,13.0,86,0.00,,,0.01,156.00,VWS V14.01,2013-06-12 14:32:00,
2013-06-12 09:33:00,81.7,76.8,30.05,SSE,164,0.0,3.9,85,0.00,,SCT014,0.01,167.00,VWS V14.01,2013-06-12 14:33:00,
2013-06-12 09:34:00,81.7,76.8,30.05,SSE,164,0.0,3.9,85,0.00,,,0.01,167.00,VWS V14.01,2013-06-12 14:34:00,
2013-06-12 09:35:00,81.8,76.8,30.05,SSE,162,0.0,3.9,85,0.00,,,0.01,167.00,VWS V14.01,2013-06-12 14:35:00,
2013-06-12 09:36:00,81.9,76.9,30.05,SSE,157,2.6,7.8,85,0.00,,,0.01,167.00,VWS V14.01,2013-06-12 14:36:00,
2013-06-12 09:37:00,82.0,77.1,30.05,SSE,158,1.3,6.5,85,0.00,,,0.01,167.00,VWS V14.01,2013-06-12 14:37:00,
2013-06-12 09:38:00,82.2,76.9,30.05,South,189,7.8,16.9,84,0.00,,SCT014,0.01,167.00,VWS V14.01,2013-06-12 14:38:00,
2013-06-12 09:39:00,82.2,76.9,30.05,South,189,7.8,16.9,84,0.00,,,0.01,167.00,VWS V14.01,2013-06-12 14:39:00,
2013-06-12 09:40:00,82.3,77.0,30.05,South,188,7.8,7.8,84,0.00,,,0.01,216.00,VWS V14.01,2013-06-12 14:40:00,
2013-06-12 09:41:00,82.3,76.6,30.05,SSW,197,0.0,9.1,83,0.00,,,0.01,636.00,VWS V14.01,2013-06-12 14:41:00,
2013-06-12 09:42:00,82.4,76.7,30.05,SSW,193,5.2,5.2,83,0.00,,,0.01,636.00,VWS V14.01,2013-06-12 14:42:00,
2013-06-12 09:43:00,82.6,76.9,30.05,South,189,9.1,9.1,83,0.00,,SCT014,0.01,181.00,VWS V14.01,2013-06-12 14:43:00,
2013-06-12 09:44:00,82.7,77.0,30.05,South,189,7.8,9.1,83,0.00,,,0.01,181.00,VWS V14.01,2013-06-12 14:44:00,
2013-06-12 09:45:00,82.8,76.8,30.05,South,171,6.5,14.3,82,0.00,,,0.01,181.00,VWS V14.01,2013-06-12 14:45:00,
2013-06-12 09:46:00,82.8,76.8,30.05,SSE,166,13.0,13.0,82,0.00,,,0.01,239.00,VWS V14.01,2013-06-12 14:46:00,
2013-06-12 09:47:00,82.9,76.8,30.05,South,177,5.2,14.3,82,0.00,,,0.01,225.00,VWS V14.01,2013-06-12 14:47:00,
2013-06-12 09:48:00,82.9,76.5,30.05,SSW,194,0.0,13.0,81,0.00,,SCT014,0.01,234.00,VWS V14.01,2013-06-12 14:48:00,
2013-06-12 09:49:00,82.9,76.5,30.05,SSW,194,0.0,13.0,81,0.00,,,0.01,234.00,VWS V14.01,2013-06-12 14:49:00,
2013-06-12 09:50:00,82.9,76.5,30.06,SSE,164,6.5,14.3,81,0.00,,,0.01,234.00,VWS V14.01,2013-06-12 14:50:00,
2013-06-12 09:51:00,83.0,76.6,30.05,SSW,193,6.5,13.0,81,0.00,,,0.01,234.00,VWS V14.01,2013-06-12 14:51:00,
2013-06-12 09:52:00,83.1,76.7,30.05,SE,143,5.2,14.3,81,0.00,,,0.01,199.00,VWS V14.01,2013-06-12 14:52:00,
2013-06-12 09:53:00,83.1,76.3,30.05,SE,143,15.6,19.5,80,0.00,,SCT014,0.01,211.00,VWS V14.01,2013-06-12 14:53:00,
2013-06-12 09:54:00,83.1,76.3,30.05,SE,143,15.6,19.5,80,0.00,,,0.01,211.00,VWS V14.01,2013-06-12 14:54:00,
2013-06-12 09:55:00,83.1,76.3,30.05,SSE,168,9.1,18.2,80,0.00,,,0.01,229.00,VWS V14.01,2013-06-12 14:55:00,
2013-06-12 09:56:00,83.2,76.4,30.05,South,180,9.1,14.3,80,0.00,,,0.01,229.00,VWS V14.01,2013-06-12 14:56:00,
2013-06-12 09:57:00,83.2,76.4,30.05,SSE,168,14.3,14.3,80,0.00,,,0.01,686.00,VWS V14.01,2013-06-12 14:57:00,
2013-06-12 09:58:00,83.6,77.2,30.05,South,176,7.8,13.0,81,0.00,,SCT014,0.01,686.00,VWS V14.01,2013-06-12 14:58:00,
2013-06-12 09:59:00,83.6,77.2,30.05,South,176,7.8,13.0,81,0.00,,,0.01,686.00,VWS V14.01,2013-06-12 14:59:00,
2013-06-12 10:00:00,83.8,77.0,30.05,SE,133,3.9,13.0,80,0.00,,,0.01,671.00,VWS V14.01,2013-06-12 15:00:00,
2013-06-12 10:01:00,84.0,77.2,30.05,South,186,16.9,16.9,80,0.00,,,0.01,670.00,VWS V14.01,2013-06-12 15:01:00,
2013-06-12 10:02:00,84.2,77.0,30.05,SSE,149,3.9,16.9,79,0.00,,,0.01,647.00,VWS V14.01,2013-06-12 15:02:00,
2013-06-12 10:03:00,84.5,76.9,30.05,South,184,11.7,15.6,78,0.00,,BKN040,0.01,647.00,VWS V14.01,2013-06-12 15:03:00,
2013-06-12 10:04:00,84.6,77.0,30.05,South,179,10.4,15.6,78,0.00,,,0.01,647.00,VWS V14.01,2013-06-12 15:04:00,
2013-06-12 10:05:00,84.8,76.8,30.05,SSE,160,3.9,15.6,77,0.00,,,0.01,638.00,VWS V14.01,2013-06-12 15:05:00,
2013-06-12 10:06:00,85.0,77.4,30.05,SSE,168,3.9,11.7,78,0.00,,,0.01,650.00,VWS V14.01,2013-06-12 15:06:00,
2013-06-12 10:07:00,85.1,77.1,30.05,SSE,157,5.2,13.0,77,0.00,,,0.01,675.00,VWS V14.01,2013-06-12 15:07:00,
2013-06-12 10:08:00,85.5,77.5,30.05,SE,131,10.4,11.7,77,0.00,,BKN040,0.01,700.00,VWS V14.01,2013-06-12 15:08:00,
2013-06-12 10:09:00,85.5,77.5,30.05,SE,131,10.4,11.7,77,0.00,,,0.01,700.00,VWS V14.01,2013-06-12 15:09:00,
2013-06-12 10:10:00,85.7,77.7,30.05,SE,134,5.2,15.6,77,0.00,,,0.01,693.00,VWS V14.01,2013-06-12 15:10:00,
2013-06-12 10:11:00,85.8,77.4,30.05,SE,133,6.5,13.0,76,0.00,,,0.01,689.00,VWS V14.01,2013-06-12 15:11:00,
2013-06-12 10:12:00,86.0,77.6,30.05,SE,137,15.6,15.6,76,0.00,,,0.01,689.00,VWS V14.01,2013-06-12 15:12:00,
2013-06-12 10:13:00,86.3,77.8,30.05,SSE,158,10.4,10.4,76,0.00,,BKN040,0.01,633.00,VWS V14.01,2013-06-12 15:13:00,
2013-06-12 10:14:00,86.3,77.8,30.05,SSE,158,10.4,10.4,76,0.00,,,0.01,633.00,VWS V14.01,2013-06-12 15:14:00,
2013-06-12 10:15:00,86.4,77.5,30.05,SE,145,9.1,14.3,75,0.00,,,0.01,689.00,VWS V14.01,2013-06-12 15:15:00,
2013-06-12 10:16:00,86.6,77.3,30.05,SE,141,2.6,14.3,74,0.00,,,0.01,703.00,VWS V14.01,2013-06-12 15:16:00,
2013-06-12 10:17:00,86.7,77.8,30.05,SE,141,6.5,9.1,75,0.00,,,0.01,703.00,VWS V14.01,2013-06-12 15:17:00,
2013-06-12 10:18:00,86.9,77.2,30.05,South,176,9.1,16.9,73,0.00,,BKN040,0.01,738.00,VWS V14.01,2013-06-12 15:18:00,
2013-06-12 10:19:00,86.9,77.2,30.05,South,176,9.1,16.9,73,0.00,,,0.01,738.00,VWS V14.01,2013-06-12 15:19:00,
2013-06-12 10:20:00,86.9,77.2,30.05,SSE,154,3.9,14.3,73,0.00,,,0.01,708.00,VWS V14.01,2013-06-12 15:20:00,
2013-06-12 10:21:00,86.9,76.8,30.05,South,179,9.1,11.7,72,0.00,,,0.01,642.00,VWS V14.01,2013-06-12 15:21:00,
2013-06-12 10:22:00,87.0,76.9,30.05,South,179,3.9,11.7,72,0.00,,,0.01,673.00,VWS V14.01,2013-06-12 15:22:00,
2013-06-12 10:23:00,87.2,77.5,30.05,SSE,156,13.0,15.6,73,0.00,,BKN040,0.01,722.00,VWS V14.01,2013-06-12 15:23:00,
2013-06-12 10:24:00,87.2,77.5,30.05,SSE,156,13.0,15.6,73,0.00,,,0.01,722.00,VWS V14.01,2013-06-12 15:24:00,
2013-06-12 10:25:00,87.3,77.6,30.05,SSE,165,0.0,14.3,73,0.00,,,0.01,749.00,VWS V14.01,2013-06-12 15:25:00,
2013-06-12 10:26:00,87.5,77.8,30.05,South,176,10.4,13.0,73,0.00,,,0.01,766.00,VWS V14.01,2013-06-12 15:26:00,
2013-06-12 10:27:00,87.6,77.5,30.05,South,172,11.7,11.7,72,0.00,,,0.01,800.00,VWS V14.01,2013-06-12 15:27:00,
2013-06-12 10:28:00,87.9,78.2,30.05,SE,144,11.7,18.2,73,0.00,,BKN040,0.01,795.00,VWS V14.01,2013-06-12 15:28:00,
2013-06-12 10:29:00,87.9,78.2,30.05,SE,144,11.7,18.2,73,0.00,,,0.01,795.00,VWS V14.01,2013-06-12 15:29:00,
2013-06-12 10:30:00,87.9,77.3,30.05,SE,133,7.8,14.3,71,0.00,,,0.01,805.00,VWS V14.01,2013-06-12 15:30:00,
2013-06-12 10:31:00,88.0,77.4,30.05,SE,136,14.3,16.9,71,0.00,,,0.01,819.00,VWS V14.01,2013-06-12 15:31:00,
2013-06-12 10:32:00,88.1,77.5,30.05,SE,129,6.5,14.3,71,0.00,,,0.01,819.00,VWS V14.01,2013-06-12 15:32:00,
2013-06-12 10:33:00,88.3,77.7,30.05,ESE,114,7.8,7.8,71,0.00,,BKN040,0.01,817.00,VWS V14.01,2013-06-12 15:33:00,
2013-06-12 10:34:00,88.3,77.7,30.05,SE,135,3.9,11.7,71,0.00,,,0.01,817.00,VWS V14.01,2013-06-12 15:34:00,
2013-06-12 10:35:00,88.4,77.8,30.05,SE,139,5.2,11.7,71,0.00,,,0.01,835.00,VWS V14.01,2013-06-12 15:35:00,
2013-06-12 10:36:00,88.6,78.4,30.05,SSE,165,6.5,13.0,72,0.00,,,0.01,863.00,VWS V14.01,2013-06-12 15:36:00,
2013-06-12 10:37:00,88.7,77.7,30.05,SE,135,3.9,13.0,70,0.00,,,0.01,853.00,VWS V14.01,2013-06-12 15:37:00,
2013-06-12 10:38:00,88.8,77.8,30.05,SSE,147,14.3,14.3,70,0.00,,BKN040,0.01,338.00,VWS V14.01,2013-06-12 15:38:00,
2013-06-12 10:39:00,88.8,77.8,30.05,SE,145,10.4,16.9,70,0.00,,,0.01,338.00,VWS V14.01,2013-06-12 15:39:00,
2013-06-12 10:40:00,88.9,77.4,30.05,SSE,150,0.0,14.3,69,0.00,,,0.01,782.00,VWS V14.01,2013-06-12 15:40:00,
2013-06-12 10:41:00,88.8,77.3,30.05,SE,143,9.1,15.6,69,0.00,,,0.01,782.00,VWS V14.01,2013-06-12 15:41:00,
2013-06-12 10:42:00,88.8,77.3,30.05,SE,141,10.4,14.3,69,0.00,,,0.01,782.00,VWS V14.01,2013-06-12 15:42:00,
2013-06-12 10:43:00,88.7,76.8,30.05,SSE,168,9.1,9.1,68,0.00,,BKN040,0.01,831.00,VWS V14.01,2013-06-12 15:43:00,
2013-06-12 10:44:00,88.7,76.8,30.05,SSE,162,6.5,11.7,68,0.00,,,0.01,782.00,VWS V14.01,2013-06-12 15:44:00,
2013-06-12 10:45:00,88.7,76.8,30.05,SSE,159,11.7,11.7,68,0.00,,,0.01,840.00,VWS V14.01,2013-06-12 15:45:00,
2013-06-12 10:46:00,88.8,77.3,30.05,SSE,163,9.1,14.3,69,0.00,,,0.01,854.00,VWS V14.01,2013-06-12 15:46:00,
2013-06-12 10:47:00,88.8,77.3,30.05,South,170,5.2,9.1,69,0.00,,,0.01,849.00,VWS V14.01,2013-06-12 15:47:00,
2013-06-12 10:48:00,89.2,78.6,30.05,South,174,7.8,7.8,71,0.00,,BKN040,0.01,867.00,VWS V14.01,2013-06-12 15:48:00,
2013-06-12 10:49:00,89.1,78.5,30.05,South,174,3.9,11.7,71,0.00,,,0.01,867.00,VWS V14.01,2013-06-12 15:49:00,
2013-06-12 10:50:00,89.2,77.7,30.05,South,170,6.5,9.1,69,0.00,,,0.01,874.00,VWS V14.01,2013-06-12 15:50:00,
2013-06-12 10:51:00,89.2,77.3,30.05,South,181,6.5,13.0,68,0.00,,,0.01,874.00,VWS V14.01,2013-06-12 15:51:00,
2013-06-12 10:52:00,89.2,77.3,30.05,SSE,168,6.5,13.0,68,0.00,,,0.01,874.00,VWS V14.01,2013-06-12 15:52:00,
2013-06-12 10:53:00,89.3,77.8,30.05,SSE,162,0.0,0.0,69,0.00,,BKN040,0.01,295.00,VWS V14.01,2013-06-12 15:53:00,
2013-06-12 10:54:00,89.3,77.8,30.05,SSE,162,0.0,6.5,69,0.00,,,0.01,295.00,VWS V14.01,2013-06-12 15:54:00,
2013-06-12 10:55:00,89.3,78.7,30.05,SSE,162,0.0,1.3,71,0.00,,,0.01,891.00,VWS V14.01,2013-06-12 15:55:00,
2013-06-12 10:56:00,89.3,77.8,30.05,SSE,164,7.8,9.1,69,0.00,,,0.01,928.00,VWS V14.01,2013-06-12 15:56:00,
2013-06-12 10:57:00,89.3,77.8,30.06,SSE,162,3.9,7.8,69,0.00,,,0.01,928.00,VWS V14.01,2013-06-12 15:57:00,
2013-06-12 10:58:00,89.3,76.9,30.05,SSE,162,7.8,10.4,67,0.00,,BKN040,0.01,893.00,VWS V14.01,2013-06-12 15:58:00,
2013-06-12 10:59:00,89.3,77.4,30.05,SSE,165,6.5,15.6,68,0.00,,,0.01,893.00,VWS V14.01,2013-06-12 15:59:00,
2013-06-12 11:00:00,89.4,77.9,30.05,SE,133,11.7,11.7,69,0.00,,,0.01,893.00,VWS V14.01,2013-06-12 16:00:00,
2013-06-12 11:01:00,89.4,77.4,30.05,SE,133,0.0,11.7,68,0.00,,,0.01,251.00,VWS V14.01,2013-06-12 16:01:00,
2013-06-12 11:02:00,89.4,77.0,30.05,SSE,147,14.3,14.3,67,0.00,,,0.01,853.00,VWS V14.01,2013-06-12 16:02:00,
2013-06-12 11:03:00,89.3,76.9,30.05,SSE,167,3.9,14.3,67,0.00,,,0.01,853.00,VWS V14.01,2013-06-12 16:03:00,
2013-06-12 11:04:00,89.3,76.9,30.05,South,183,6.5,7.8,67,0.00,,BKN049,0.01,849.00,VWS V14.01,2013-06-12 16:04:00,
2013-06-12 11:05:00,89.3,76.9,30.05,SE,129,3.9,7.8,67,0.00,,,0.01,842.00,VWS V14.01,2013-06-12 16:05:00,
2013-06-12 11:06:00,89.4,77.4,30.05,SE,130,3.9,6.5,68,0.00,,,0.01,846.00,VWS V14.01,2013-06-12 16:06:00,
2013-06-12 11:07:00,89.5,77.6,30.05,SE,133,3.9,5.2,68,0.00,,,0.01,846.00,VWS V14.01,2013-06-12 16:07:00,
2013-06-12 11:08:00,89.5,77.1,30.05,SSE,152,2.6,7.8,67,0.00,,,0.01,278.00,VWS V14.01,2013-06-12 16:08:00,
2013-06-12 11:09:00,89.5,76.7,30.05,South,184,13.0,14.3,66,0.00,,BKN049,0.01,278.00,VWS V14.01,2013-06-12 16:09:00,
2013-06-12 11:10:00,89.5,77.6,30.06,SSE,151,5.2,14.3,68,0.00,,,0.01,865.00,VWS V14.01,2013-06-12 16:10:00,
2013-06-12 11:11:00,89.5,77.6,30.06,SE,142,0.0,9.1,68,0.00,,,0.01,865.00,VWS V14.01,2013-06-12 16:11:00,
2013-06-12 11:12:00,89.4,77.0,30.06,ESE,120,5.2,9.1,67,0.00,,,0.01,211.00,VWS V14.01,2013-06-12 16:12:00,
2013-06-12 11:13:00,89.4,77.0,30.06,SSE,156,5.2,13.0,67,0.00,,,0.01,211.00,VWS V14.01,2013-06-12 16:13:00,
2013-06-12 11:14:00,89.2,76.8,30.05,South,189,0.0,5.2,67,0.00,,BKN049,0.01,889.00,VWS V14.01,2013-06-12 16:14:00,
2013-06-12 11:15:00,89.2,77.3,30.06,South,189,0.0,5.2,68,0.00,,,0.01,907.00,VWS V14.01,2013-06-12 16:15:00,
2013-06-12 11:16:00,89.3,77.4,30.06,SSE,154,6.5,11.7,68,0.00,,,0.01,921.00,VWS V14.01,2013-06-12 16:16:00,
2013-06-12 11:17:00,89.3,77.8,30.06,SSE,154,3.9,6.5,69,0.00,,,0.01,939.00,VWS V14.01,2013-06-12 16:17:00,
2013-06-12 11:18:00,89.4,77.4,30.06,SSE,150,0.0,5.2,68,0.00,,,0.01,861.00,VWS V14.01,2013-06-12 16:18:00,
2013-06-12 11:19:00,89.5,77.6,30.05,SSE,150,3.9,3.9,68,0.00,,BKN049,0.01,812.00,VWS V14.01,2013-06-12 16:19:00,
2013-06-12 11:20:00,89.6,78.1,30.06,SSE,166,13.0,13.0,69,0.00,,,0.01,823.00,VWS V14.01,2013-06-12 16:20:00,
2013-06-12 11:21:00,89.7,77.7,30.06,South,172,7.8,13.0,68,0.00,,,0.01,752.00,VWS V14.01,2013-06-12 16:21:00,
2013-06-12 11:22:00,89.7,77.7,30.06,SSE,168,2.6,11.7,68,0.00,,,0.01,800.00,VWS V14.01,2013-06-12 16:22:00,
2013-06-12 11:23:00,89.8,77.8,30.06,SSE,164,7.8,9.1,68,0.00,,,0.01,831.00,VWS V14.01,2013-06-12 16:23:00,
2013-06-12 11:24:00,89.8,76.9,30.05,South,181,5.2,6.5,66,0.00,,BKN049,0.01,856.00,VWS V14.01,2013-06-12 16:24:00,
2013-06-12 11:25:00,89.8,76.9,30.05,SSE,162,2.6,7.8,66,0.00,,,0.01,856.00,VWS V14.01,2013-06-12 16:25:00,
2013-06-12 11:26:00,89.9,77.9,30.05,ESE,117,0.0,14.3,68,0.00,,,0.01,870.00,VWS V14.01,2013-06-12 16:26:00,
2013-06-12 11:27:00,89.9,77.0,30.06,ESE,110,3.9,11.7,66,0.00,,,0.01,865.00,VWS V14.01,2013-06-12 16:27:00,
2013-06-12 11:28:00,90.1,77.7,30.05,SE,127,0.0,9.1,67,0.00,,,0.01,865.00,VWS V14.01,2013-06-12 16:28:00,
2013-06-12 11:29:00,90.1,77.7,30.05,SE,133,5.2,5.2,67,0.00,,BKN049,0.01,886.00,VWS V14.01,2013-06-12 16:29:00,
2013-06-12 11:30:00,90.2,77.8,30.05,SSE,154,6.5,11.7,67,0.00,,,0.01,886.00,VWS V14.01,2013-06-12 16:30:00,
2013-06-12 11:31:00,90.2,77.3,30.05,SE,144,9.1,9.1,66,0.00,,,0.01,898.00,VWS V14.01,2013-06-12 16:31:00,
2013-06-12 11:32:00,90.2,77.3,30.05,SSE,150,13.0,14.3,66,0.00,,,0.01,898.00,VWS V14.01,2013-06-12 16:32:00,
2013-06-12 11:33:00,90.3,77.4,30.05,SSE,157,3.9,13.0,66,0.00,,,0.01,898.00,VWS V14.01,2013-06-12 16:33:00,
2013-06-12 11:34:00,90.2,77.8,30.05,SSE,155,0.0,7.8,67,0.00,,BKN049,0.01,898.00,VWS V14.01,2013-06-12 16:34:00,
2013-06-12 11:35:00,90.2,78.2,30.05,SSE,160,5.2,7.8,68,0.00,,,0.01,925.00,VWS V14.01,2013-06-12 16:35:00,
2013-06-12 11:36:00,90.1,77.7,30.05,South,175,5.2,15.6,67,0.00,,,0.01,925.00,VWS V14.01,2013-06-12 16:36:00,
2013-06-12 11:37:00,90.1,77.2,30.05,South,176,5.2,9.1,66,0.00,,,0.01,925.00,VWS V14.01,2013-06-12 16:37:00,
2013-06-12 11:38:00,90.1,77.7,30.05,South,176,2.6,5.2,67,0.00,,,0.01,220.00,VWS V14.01,2013-06-12 16:38:00,
2013-06-12 11:39:00,90.0,77.1,30.05,SE,141,5.2,6.5,66,0.00,,BKN049,0.01,239.00,VWS V14.01,2013-06-12 16:39:00,
2013-06-12 11:40:00,89.9,77.0,30.05,SE,142,2.6,6.5,66,0.00,,,0.01,244.00,VWS V14.01,2013-06-12 16:40:00,
2013-06-12 11:41:00,89.7,77.3,30.05,SE,127,7.8,9.1,67,0.00,,,0.01,244.00,VWS V14.01,2013-06-12 16:41:00,
2013-06-12 11:42:00,89.6,77.2,30.05,SE,137,1.3,14.3,67,0.00,,,0.01,244.00,VWS V14.01,2013-06-12 16:42:00,
2013-06-12 11:43:00,89.5,77.6,30.05,SE,134,3.9,11.7,68,0.00,,,0.01,244.00,VWS V14.01,2013-06-12 16:43:00,
2013-06-12 11:44:00,89.5,78.0,30.05,South,171,11.7,14.3,69,0.00,,BKN049,0.01,939.00,VWS V14.01,2013-06-12 16:44:00,
2013-06-12 11:45:00,89.6,78.1,30.05,SSE,164,2.6,14.3,69,0.00,,,0.01,928.00,VWS V14.01,2013-06-12 16:45:00,
2013-06-12 11:46:00,89.6,77.6,30.05,ESE,102,6.5,11.7,68,0.00,,,0.01,923.00,VWS V14.01,2013-06-12 16:46:00,
2013-06-12 11:47:00,89.7,78.6,30.05,ESE,118,3.9,9.1,70,0.00,,,0.01,933.00,VWS V14.01,2013-06-12 16:47:00,
2013-06-12 11:48:00,89.9,78.4,30.05,ESE,109,0.0,7.8,69,0.00,,,0.01,933.00,VWS V14.01,2013-06-12 16:48:00,
2013-06-12 11:49:00,89.9,77.9,30.05,ESE,109,1.3,2.6,68,0.00,,BKN049,0.01,454.00,VWS V14.01,2013-06-12 16:49:00,
2013-06-12 11:50:00,89.9,78.4,30.05,South,169,3.9,11.7,69,0.00,,,0.01,454.00,VWS V14.01,2013-06-12 16:50:00,
2013-06-12 11:51:00,89.9,77.9,30.05,SSE,156,2.6,6.5,68,0.00,,,0.01,1023.00,VWS V14.01,2013-06-12 16:51:00,
2013-06-12 11:52:00,90.0,79.3,30.05,SSE,156,5.2,5.2,71,0.00,,,0.01,928.00,VWS V14.01,2013-06-12 16:52:00,
2013-06-12 11:53:00,90.1,78.6,30.05,SE,132,3.9,6.5,69,0.00,,,0.01,928.00,VWS V14.01,2013-06-12 16:53:00,
2013-06-12 11:54:00,90.2,78.2,30.05,SE,132,6.5,6.5,68,0.00,,BKN049,0.01,928.00,VWS V14.01,2013-06-12 16:54:00,
2013-06-12 11:55:00,90.2,77.8,30.05,SE,132,2.6,6.5,67,0.00,,,0.01,1025.00,VWS V14.01,2013-06-12 16:55:00,
2013-06-12 11:56:00,90.3,77.4,30.05,SE,131,1.3,3.9,66,0.00,,,0.01,1025.00,VWS V14.01,2013-06-12 16:56:00,
2013-06-12 11:57:00,90.4,78.0,30.05,SE,132,2.6,5.2,67,0.00,,,0.01,227.00,VWS V14.01,2013-06-12 16:57:00,
2013-06-12 11:58:00,90.4,78.0,30.05,SE,131,6.5,11.7,67,0.00,,,0.01,230.00,VWS V14.01,2013-06-12 16:58:00,
2013-06-12 11:59:00,90.3,76.9,30.05,SE,127,6.5,9.1,65,0.00,,BKN049,0.01,951.00,VWS V14.01,2013-06-12 16:59:00,
2013-06-12 12:00:00,90.2,77.3,30.05,SE,125,5.2,9.1,66,0.00,,,0.01,951.00,VWS V14.01,2013-06-12 17:00:00,
2013-06-12 12:01:00,90.1,77.2,30.05,SSE,168,5.2,7.8,66,0.00,,,0.01,960.00,VWS V14.01,2013-06-12 17:01:00,
2013-06-12 12:02:00,90.1,77.2,30.05,South,169,3.9,9.1,66,0.00,,,0.01,963.00,VWS V14.01,2013-06-12 17:02:00,
2013-06-12 12:03:00,90.0,77.1,30.05,South,188,7.8,11.7,66,0.00,,,0.01,1042.00,VWS V14.01,2013-06-12 17:03:00,
2013-06-12 12:04:00,90.1,77.7,30.04,South,171,6.5,6.5,67,0.00,,BKN041,0.01,1020.00,VWS V14.01,2013-06-12 17:04:00,
2013-06-12 12:05:00,90.2,77.3,30.04,South,190,11.7,11.7,66,0.00,,,0.01,1020.00,VWS V14.01,2013-06-12 17:05:00,
2013-06-12 12:06:00,90.3,77.4,30.04,South,182,5.2,11.7,66,0.00,,,0.01,1020.00,VWS V14.01,2013-06-12 17:06:00,
2013-06-12 12:07:00,90.3,76.9,30.04,South,170,7.8,7.8,65,0.00,,,0.01,854.00,VWS V14.01,2013-06-12 17:07:00,
2013-06-12 12:08:00,90.4,77.0,30.04,SSE,156,5.2,9.1,65,0.00,,,0.01,1002.00,VWS V14.01,2013-06-12 17:08:00,
2013-06-12 12:09:00,90.6,78.1,30.05,SE,145,6.5,14.3,67,0.00,,BKN041,0.01,1005.00,VWS V14.01,2013-06-12 17:09:00,
2013-06-12 12:10:00,90.6,77.7,30.05,SE,145,5.2,14.3,66,0.00,,,0.01,1016.00,VWS V14.01,2013-06-12 17:10:00,
2013-06-12 12:11:00,90.8,77.9,30.04,SSE,151,7.8,10.4,66,0.00,,,0.01,1023.00,VWS V14.01,2013-06-12 17:11:00,
2013-06-12 12:12:00,90.8,77.4,30.05,SSE,153,15.6,16.9,65,0.00,,,0.01,1023.00,VWS V14.01,2013-06-12 17:12:00,
2013-06-12 12:13:00,90.8,77.4,30.05,SE,128,7.8,15.6,65,0.00,,,0.01,285.00,VWS V14.01,2013-06-12 17:13:00,
2013-06-12 12:14:00,90.8,77.4,30.05,SE,131,3.9,9.1,65,0.00,,BKN041,0.01,285.00,VWS V14.01,2013-06-12 17:14:00,
2013-06-12 12:15:00,90.7,77.3,30.05,SE,143,5.2,11.7,65,0.00,,,0.01,374.00,VWS V14.01,2013-06-12 17:15:00,
2013-06-12 12:16:00,90.6,76.8,30.05,South,177,9.1,14.3,64,0.00,,,0.01,283.00,VWS V14.01,2013-06-12 17:16:00,
2013-06-12 12:17:00,90.5,76.7,30.05,South,182,6.5,13.0,64,0.00,,,0.01,278.00,VWS V14.01,2013-06-12 17:17:00,
2013-06-12 12:18:00,90.4,76.6,30.04,SSE,150,7.8,9.1,64,0.00,,,0.01,292.00,VWS V14.01,2013-06-12 17:18:00,
2013-06-12 12:19:00,90.3,76.9,30.04,SE,129,5.2,5.2,65,0.00,,BKN041,0.01,1039.00,VWS V14.01,2013-06-12 17:19:00,
2013-06-12 12:20:00,90.3,77.9,30.04,SE,141,2.6,9.1,67,0.00,,,0.01,1046.00,VWS V14.01,2013-06-12 17:20:00,
2013-06-12 12:21:00,90.4,78.4,30.04,SE,138,3.9,6.5,68,0.00,,,0.01,1053.00,VWS V14.01,2013-06-12 17:21:00,
2013-06-12 12:22:00,90.6,78.6,30.04,SE,127,14.3,14.3,68,0.00,,,0.01,983.00,VWS V14.01,2013-06-12 17:22:00,
2013-06-12 12:23:00,90.7,79.1,30.04,SE,143,5.2,14.3,69,0.00,,,0.01,983.00,VWS V14.01,2013-06-12 17:23:00,
2013-06-12 12:24:00,90.8,78.8,30.04,SE,135,7.8,7.8,68,0.00,,BKN041,0.01,1027.00,VWS V14.01,2013-06-12 17:24:00,
2013-06-12 12:25:00,90.8,77.9,30.04,SE,143,2.6,7.8,66,0.00,,,0.01,1028.00,VWS V14.01,2013-06-12 17:25:00,
2013-06-12 12:26:00,90.9,77.5,30.04,SE,144,5.2,6.5,65,0.00,,,0.01,1028.00,VWS V14.01,2013-06-12 17:26:00,
2013-06-12 12:27:00,91.0,77.6,30.04,SE,145,0.0,5.2,65,0.00,,,0.01,1028.00,VWS V14.01,2013-06-12 17:27:00,
2013-06-12 12:28:00,91.0,77.6,30.04,SE,131,6.5,6.5,65,0.00,,,0.01,239.00,VWS V14.01,2013-06-12 17:28:00,
2013-06-12 12:29:00,91.0,77.1,30.04,SE,130,2.6,6.5,64,0.00,,BKN041,0.01,318.00,VWS V14.01,2013-06-12 17:29:00,
2013-06-12 12:30:00,90.8,76.9,30.04,SE,137,6.5,6.5,64,0.00,,,0.01,318.00,VWS V14.01,2013-06-12 17:30:00,
2013-06-12 12:31:00,90.7,76.4,30.04,SE,141,5.2,6.5,63,0.00,,,0.01,318.00,VWS V14.01,2013-06-12 17:31:00,
2013-06-12 12:32:00,90.7,76.4,30.04,SE,143,7.8,7.8,63,0.00,,,0.01,1065.00,VWS V14.01,2013-06-12 17:32:00,
2013-06-12 12:33:00,90.6,76.8,30.04,SE,141,1.3,7.8,64,0.00,,,0.01,1065.00,VWS V14.01,2013-06-12 17:33:00,
2013-06-12 12:34:00,90.7,77.8,30.04,East,98,5.2,7.8,66,0.00,,BKN041,0.01,267.00,VWS V14.01,2013-06-12 17:34:00,
2013-06-12 12:35:00,90.7,77.3,30.04,East,95,1.3,7.8,65,0.00,,,0.01,267.00,VWS V14.01,2013-06-12 17:35:00,
2013-06-12 12:36:00,90.7,77.8,30.04,SE,137,9.1,10.4,66,0.00,,,0.01,1044.00,VWS V14.01,2013-06-12 17:36:00,
2013-06-12 12:37:00,90.8,77.9,30.04,SSE,158,6.5,11.7,66,0.00,,,0.01,1044.00,VWS V14.01,2013-06-12 17:37:00,
2013-06-12 12:38:00,90.8,77.9,30.04,South,178,9.1,9.1,66,0.00,,,0.01,1044.00,VWS V14.01,2013-06-12 17:38:00,
2013-06-12 12:39:00,91.0,78.1,30.04,SSE,150,3.9,7.8,66,0.00,,BKN041,0.01,251.00,VWS V14.01,2013-06-12 17:39:00,
2013-06-12 12:40:00,91.0,77.6,30.04,SE,141,3.9,7.8,65,0.00,,,0.01,251.00,VWS V14.01,2013-06-12 17:40:00,
2013-06-12 12:41:00,91.0,77.6,30.04,SSE,160,11.7,13.0,65,0.00,,,0.01,251.00,VWS V14.01,2013-06-12 17:41:00,
2013-06-12 12:44:00,90.9,78.0,30.03,SSE,158,1.3,7.8,66,0.00,,BKN041,0.01,1058.00,VWS V14.01,2013-06-12 17:44:00,
2013-06-12 12:51:00,91.3,77.9,30.03,SSE,154,2.6,6.5,65,0.00,,,0.01,988.00,VWS V14.01,2013-06-12 17:51:00,
2013-06-12 12:56:00,91.7,78.3,30.03,SE,139,5.2,15.6,65,0.00,,,0.01,1046.00,VWS V14.01,2013-06-12 17:56:00,
2013-06-12 13:01:00,91.6,78.2,30.03,SE,136,9.1,9.1,65,0.00,,BKN035,0.01,1071.00,VWS V14.01,2013-06-12 18:01:00,
2013-06-12 13:06:00,92.1,77.2,30.03,SE,139,5.2,14.3,62,0.00,,BKN035,0.01,230.00,VWS V14.01,2013-06-12 18:06:00,
2013-06-12 13:11:00,91.7,77.3,30.03,SE,142,7.8,13.0,63,0.00,,BKN035,0.01,1016.00,VWS V14.01,2013-06-12 18:11:00,
2013-06-12 13:16:00,91.9,77.5,30.03,SE,128,2.6,5.2,63,0.00,,BKN035,0.01,1011.00,VWS V14.01,2013-06-12 18:16:00,
2013-06-12 13:21:00,92.0,77.6,30.02,SE,145,9.1,13.0,63,0.00,,BKN035,0.01,1116.00,VWS V14.01,2013-06-12 18:21:00,
2013-06-12 13:26:00,92.3,77.4,30.03,SSE,156,3.9,6.5,62,0.00,,BKN035,0.01,290.00,VWS V14.01,2013-06-12 18:26:00,
2013-06-12 13:31:00,91.8,77.4,30.03,SE,133,3.9,3.9,63,0.00,,BKN035,0.01,332.00,VWS V14.01,2013-06-12 18:31:00,
2013-06-12 13:36:00,91.0,77.1,30.02,SSE,151,2.6,2.6,64,0.00,,BKN035,0.01,394.00,VWS V14.01,2013-06-12 18:36:00,
2013-06-12 13:41:00,91.4,77.0,30.02,South,170,7.8,14.3,63,0.00,,BKN035,0.01,965.00,VWS V14.01,2013-06-12 18:41:00,
2013-06-12 13:46:00,91.6,77.2,30.02,SSE,161,2.6,14.3,63,0.00,,BKN035,0.01,953.00,VWS V14.01,2013-06-12 18:46:00,
2013-06-12 13:51:00,91.7,77.3,30.02,South,174,6.5,14.3,63,0.00,,BKN035,0.01,905.00,VWS V14.01,2013-06-12 18:51:00,
2013-06-12 13:56:00,92.1,77.2,30.02,South,171,1.3,3.9,62,0.00,,BKN035,0.01,888.00,VWS V14.01,2013-06-12 18:56:00,
2013-06-12 14:01:00,92.4,76.5,30.02,South,175,7.8,7.8,60,0.00,,SCT046,0.01,881.00,VWS V14.01,2013-06-12 19:01:00,
2013-06-12 14:06:00,92.4,77.0,30.02,SE,140,3.9,3.9,61,0.00,,SCT046,0.01,265.00,VWS V14.01,2013-06-12 19:06:00,
2013-06-12 14:11:00,91.8,76.9,30.03,SSE,166,11.7,13.0,62,0.00,,SCT046,0.01,158.00,VWS V14.01,2013-06-12 19:11:00,
2013-06-12 14:16:00,90.7,77.8,30.03,South,170,6.5,13.0,66,0.04,,SCT046,0.05,134.00,VWS V14.01,2013-06-12 19:16:00,
2013-06-12 14:21:00,88.3,76.4,30.03,South,170,3.9,7.8,68,0.13,,SCT046,0.14,158.00,VWS V14.01,2013-06-12 19:21:00,
2013-06-12 14:26:00,86.3,76.2,30.03,SSE,150,0.0,0.0,72,0.15,,SCT046,0.16,156.00,VWS V14.01,2013-06-12 19:26:00,
2013-06-12 14:31:00,84.7,76.3,30.03,SSE,150,2.6,3.9,76,0.16,,SCT046,0.17,160.00,VWS V14.01,2013-06-12 19:31:00,
2013-06-12 14:36:00,83.6,76.0,30.02,SSE,148,0.0,0.0,78,0.16,,SCT046,0.17,160.00,VWS V14.01,2013-06-12 19:36:00,
2013-06-12 14:41:00,82.7,75.9,30.02,SSE,148,0.0,0.0,80,0.16,,SCT046,0.17,155.00,VWS V14.01,2013-06-12 19:41:00,
2013-06-12 14:46:00,82.4,76.4,30.02,SSE,148,0.0,0.0,82,0.16,,SCT046,0.17,151.00,VWS V14.01,2013-06-12 19:46:00,
2013-06-12 14:51:00,82.0,76.3,30.02,SSE,148,0.0,0.0,83,0.16,,SCT046,0.17,146.00,VWS V14.01,2013-06-12 19:51:00,
2013-06-12 14:56:00,81.9,76.2,30.02,SSE,148,0.0,0.0,83,0.16,,SCT046,0.17,144.00,VWS V14.01,2013-06-12 19:56:00,
2013-06-12 15:01:00,81.8,76.5,30.02,SSE,148,0.0,0.0,84,0.16,,CLR,0.17,144.00,VWS V14.01,2013-06-12 20:01:00,
2013-06-12 15:06:00,81.8,76.8,30.02,SSE,148,0.0,0.0,85,0.16,,CLR,0.17,149.00,VWS V14.01,2013-06-12 20:06:00,
2013-06-12 15:11:00,81.8,76.5,30.01,SSE,148,0.0,0.0,84,0.16,,CLR,0.17,160.00,VWS V14.01,2013-06-12 20:11:00,
2013-06-12 15:16:00,82.0,77.1,30.01,SSE,148,0.0,0.0,85,0.12,,CLR,0.17,172.00,VWS V14.01,2013-06-12 20:16:00,
2013-06-12 15:21:00,82.3,77.7,30.01,SSE,148,0.0,0.0,86,0.03,,CLR,0.17,192.00,VWS V14.01,2013-06-12 20:21:00,
2013-06-12 15:26:00,82.3,77.7,30.01,SSE,148,0.0,0.0,86,0.01,,CLR,0.17,206.00,VWS V14.01,2013-06-12 20:26:00,
2013-06-12 15:32:00,82.3,77.7,30.01,SSE,148,0.0,0.0,86,0.00,,CLR,0.17,227.00,VWS V14.01,2013-06-12 20:32:00,
2013-06-12 15:37:00,82.4,77.8,30.00,SSE,148,0.0,0.0,86,0.00,,CLR,0.17,244.00,VWS V14.01,2013-06-12 20:37:00,
2013-06-12 15:42:00,82.5,77.5,30.00,SSE,148,0.0,0.0,85,0.00,,CLR,0.17,257.00,VWS V14.01,2013-06-12 20:42:00,
2013-06-12 15:47:00,82.8,78.2,30.00,SSE,148,0.0,0.0,86,0.00,,CLR,0.17,267.00,VWS V14.01,2013-06-12 20:47:00,
2013-06-12 15:52:00,83.0,78.0,30.00,SSE,148,0.0,0.0,85,0.00,,CLR,0.17,274.00,VWS V14.01,2013-06-12 20:52:00,
2013-06-12 15:57:00,83.3,78.3,30.00,SSE,148,2.6,2.6,85,0.00,,CLR,0.17,287.00,VWS V14.01,2013-06-12 20:57:00,
2013-06-12 16:02:00,83.4,77.7,29.99,SSE,147,1.3,3.9,83,0.00,,CLR,0.17,299.00,VWS V14.01,2013-06-12 21:02:00,
2013-06-12 16:07:00,83.8,78.1,29.99,SSE,147,0.0,1.3,83,0.00,,CLR,0.17,308.00,VWS V14.01,2013-06-12 21:07:00,
2013-06-12 16:12:00,84.2,78.1,29.99,SSE,147,2.6,2.6,82,0.00,,CLR,0.17,309.00,VWS V14.01,2013-06-12 21:12:00,
2013-06-12 16:17:00,84.5,78.4,29.99,SSE,147,0.0,2.6,82,0.00,,CLR,0.17,309.00,VWS V14.01,2013-06-12 21:17:00,
2013-06-12 16:22:00,84.9,78.4,29.98,SE,143,3.9,3.9,81,0.00,,CLR,0.17,323.00,VWS V14.01,2013-06-12 21:22:00,
2013-06-12 16:27:00,85.2,78.7,29.99,East,100,0.0,3.9,81,0.00,,CLR,0.17,330.00,VWS V14.01,2013-06-12 21:27:00,
2013-06-12 16:32:00,85.4,78.5,29.98,East,96,5.2,6.5,80,0.00,,CLR,0.17,336.00,VWS V14.01,2013-06-12 21:32:00,
2013-06-12 16:37:00,85.6,78.7,29.98,East,92,2.6,6.5,80,0.00,,CLR,0.17,345.00,VWS V14.01,2013-06-12 21:37:00,
2013-06-12 16:42:00,85.9,79.4,29.98,East,91,1.3,2.6,81,0.00,,CLR,0.17,357.00,VWS V14.01,2013-06-12 21:42:00,
2013-06-12 16:47:00,86.1,79.2,29.98,East,92,0.0,1.3,80,0.00,,CLR,0.17,373.00,VWS V14.01,2013-06-12 21:47:00,
2013-06-12 16:52:00,86.4,79.5,29.97,East,87,3.9,9.1,80,0.00,,CLR,0.17,390.00,VWS V14.01,2013-06-12 21:52:00,
2013-06-12 16:57:00,86.7,79.4,29.97,East,87,3.9,6.5,79,0.00,,CLR,0.17,406.00,VWS V14.01,2013-06-12 21:57:00,
2013-06-12 17:02:00,87.0,79.7,29.97,East,92,5.2,6.5,79,0.00,,OVC039,0.17,404.00,VWS V14.01,2013-06-12 22:02:00,
2013-06-12 17:07:00,87.3,79.6,29.97,East,92,1.3,3.9,78,0.00,,OVC039,0.17,420.00,VWS V14.01,2013-06-12 22:07:00,
2013-06-12 17:12:00,87.3,78.0,29.97,ESE,108,7.8,7.8,74,0.00,,OVC039,0.17,432.00,VWS V14.01,2013-06-12 22:12:00,
2013-06-12 17:17:00,87.6,77.9,29.97,ESE,119,7.8,7.8,73,0.00,,OVC039,0.17,450.00,VWS V14.01,2013-06-12 22:17:00,
2013-06-12 17:22:00,87.8,77.7,29.97,ESE,112,1.3,7.8,72,0.00,,OVC039,0.17,464.00,VWS V14.01,2013-06-12 22:22:00,
2013-06-12 17:27:00,88.0,77.4,29.96,SE,142,1.3,9.1,71,0.00,,OVC039,0.17,485.00,VWS V14.01,2013-06-12 22:27:00,
2013-06-12 17:32:00,88.3,77.7,29.96,SE,143,0.0,14.3,71,0.00,,OVC039,0.17,510.00,VWS V14.01,2013-06-12 22:32:00,
2013-06-12 17:37:00,88.4,77.4,29.97,ESE,121,11.7,14.3,70,0.00,,OVC039,0.17,209.00,VWS V14.01,2013-06-12 22:37:00,
2013-06-12 17:42:00,88.2,77.6,29.97,SSE,162,5.2,6.5,71,0.00,,OVC039,0.17,519.00,VWS V14.01,2013-06-12 22:42:00,
2013-06-12 17:47:00,88.1,77.1,29.96,South,174,7.8,11.7,70,0.00,,OVC039,0.17,473.00,VWS V14.01,2013-06-12 22:47:00,
2013-06-12 17:52:00,88.1,77.1,29.96,South,182,3.9,9.1,70,0.00,,OVC039,0.17,462.00,VWS V14.01,2013-06-12 22:52:00,
2013-06-12 17:57:00,88.2,77.2,29.96,SSE,160,7.8,11.7,70,0.00,,OVC039,0.17,422.00,VWS V14.01,2013-06-12 22:57:00,
2013-06-12 18:02:00,88.3,77.3,29.96,South,175,3.9,3.9,70,0.00,,SCT039,0.17,367.00,VWS V14.01,2013-06-12 23:02:00,
2013-06-12 18:07:00,88.3,76.8,29.96,SSE,156,5.2,7.8,69,0.00,,SCT039,0.17,348.00,VWS V14.01,2013-06-12 23:07:00,
2013-06-12 18:12:00,88.3,77.3,29.96,SE,140,5.2,11.7,70,0.00,,SCT039,0.17,330.00,VWS V14.01,2013-06-12 23:12:00,
2013-06-12 18:17:00,88.2,77.2,29.96,SSE,165,10.4,15.6,70,0.00,,SCT039,0.17,302.00,VWS V14.01,2013-06-12 23:17:00,
2013-06-12 18:22:00,88.1,76.2,29.96,SE,143,10.4,14.3,68,0.00,,SCT039,0.17,225.00,VWS V14.01,2013-06-12 23:22:00,
2013-06-12 18:27:00,88.0,76.1,29.96,South,174,16.9,16.9,68,0.00,,SCT039,0.17,179.00,VWS V14.01,2013-06-12 23:27:00,
2013-06-12 18:32:00,87.9,76.0,29.96,South,191,14.3,15.6,68,0.00,,SCT039,0.17,58.00,VWS V14.01,2013-06-12 23:32:00,
2013-06-12 18:37:00,87.8,75.9,29.96,SE,143,9.1,9.1,68,0.00,,SCT039,0.17,40.00,VWS V14.01,2013-06-12 23:37:00,
2013-06-12 18:42:00,87.5,75.6,29.97,SSE,152,2.6,16.9,68,0.00,,SCT039,0.17,35.00,VWS V14.01,2013-06-12 23:42:00,
2013-06-12 18:47:00,87.1,75.7,29.97,SSE,162,6.5,11.7,69,0.00,,SCT039,0.17,32.00,VWS V14.01,2013-06-12 23:47:00,
2013-06-12 18:52:00,86.7,75.8,29.97,SSE,151,11.7,15.6,70,0.00,,SCT039,0.17,32.00,VWS V14.01,2013-06-12 23:52:00,
2013-06-12 18:57:00,86.4,75.9,29.97,SE,144,7.8,14.3,71,0.00,,SCT039,0.17,32.00,VWS V14.01,2013-06-12 23:57:00,
2013-06-12 19:02:00,86.0,75.9,29.97,SE,141,7.8,9.1,72,0.00,,CLR,0.17,33.00,VWS V14.01,2013-06-13 00:02:00,
2013-06-12 19:07:00,85.8,76.2,29.97,SE,141,6.5,9.1,73,0.00,,CLR,0.17,35.00,VWS V14.01,2013-06-13 00:07:00,
2013-06-12 19:12:00,85.4,76.2,29.97,ESE,118,1.3,2.6,74,0.00,,CLR,0.17,35.00,VWS V14.01,2013-06-13 00:12:00,
2013-06-12 19:17:00,85.1,75.9,29.97,SE,135,11.7,11.7,74,0.00,,CLR,0.17,37.00,VWS V14.01,2013-06-13 00:17:00,
2013-06-12 19:22:00,84.8,76.0,29.97,SE,141,0.0,0.0,75,0.00,,CLR,0.17,37.00,VWS V14.01,2013-06-13 00:22:00,
2013-06-12 19:27:00,84.5,75.7,29.97,SE,138,9.1,9.1,75,0.00,,CLR,0.17,35.00,VWS V14.01,2013-06-13 00:27:00,
2013-06-12 19:32:00,84.3,75.9,29.97,SE,130,1.3,3.9,76,0.00,,CLR,0.17,35.00,VWS V14.01,2013-06-13 00:32:00,
2013-06-12 19:37:00,84.1,75.7,29.98,SE,131,0.0,6.5,76,0.00,,CLR,0.17,33.00,VWS V14.01,2013-06-13 00:37:00,
2013-06-12 19:42:00,83.9,75.9,29.98,SE,131,5.2,5.2,77,0.00,,CLR,0.17,30.00,VWS V14.01,2013-06-13 00:42:00,
2013-06-12 19:47:00,83.7,75.7,29.98,SE,142,1.3,5.2,77,0.00,,CLR,0.17,28.00,VWS V14.01,2013-06-13 00:47:00,
2013-06-12 19:52:00,83.5,75.5,29.98,SE,145,2.6,7.8,77,0.00,,CLR,0.17,25.00,VWS V14.01,2013-06-13 00:52:00,
2013-06-12 19:57:00,83.3,75.3,29.98,SE,140,5.2,7.8,77,0.00,,CLR,0.17,19.00,VWS V14.01,2013-06-13 00:57:00,
2013-06-12 20:02:00,83.0,75.1,29.98,SE,138,7.8,7.8,77,0.00,,SCT031,0.17,16.00,VWS V14.01,2013-06-13 01:02:00,
2013-06-12 20:07:00,82.8,74.9,29.98,SSE,153,1.3,3.9,77,0.00,,SCT031,0.17,11.00,VWS V14.01,2013-06-13 01:07:00,
2013-06-12 20:12:00,82.6,74.7,29.98,SSE,153,0.0,1.3,77,0.00,,SCT031,0.17,7.00,VWS V14.01,2013-06-13 01:12:00,
2013-06-12 20:17:00,82.5,74.6,29.98,SSE,152,5.2,6.5,77,0.00,,SCT031,0.17,0.00,VWS V14.01,2013-06-13 01:17:00,
2013-06-12 20:22:00,82.2,73.9,29.98,SSE,153,0.0,0.0,76,0.00,,SCT031,0.17,0.00,VWS V14.01,2013-06-13 01:22:00,
2013-06-12 20:27:00,82.0,73.7,29.98,SSE,148,9.1,9.1,76,0.00,,SCT031,0.17,0.00,VWS V14.01,2013-06-13 01:27:00,
2013-06-12 20:32:00,81.8,73.1,29.98,SSE,147,2.6,3.9,75,0.00,,SCT031,0.17,0.00,VWS V14.01,2013-06-13 01:32:00,
2013-06-12 20:38:00,81.6,72.9,29.99,SSE,147,0.0,3.9,75,0.00,,SCT031,0.17,0.00,VWS V14.01,2013-06-13 01:38:00,
2013-06-12 20:43:00,81.4,72.7,29.99,SSE,147,2.6,5.2,75,0.00,,SCT031,0.17,0.00,VWS V14.01,2013-06-13 01:43:00,
2013-06-12 20:48:00,81.2,72.5,29.99,SE,144,5.2,6.5,75,0.00,,SCT031,0.17,0.00,VWS V14.01,2013-06-13 01:48:00,
2013-06-12 20:53:00,80.9,72.2,29.99,SE,143,5.2,5.2,75,0.00,,SCT031,0.17,0.00,VWS V14.01,2013-06-13 01:53:00,
2013-06-12 20:58:00,80.7,72.0,29.99,SSE,164,2.6,7.8,75,0.00,,SCT031,0.17,0.00,VWS V14.01,2013-06-13 01:58:00,
2013-06-12 21:03:00,80.5,71.8,29.99,SSE,152,3.9,3.9,75,0.00,,CLR,0.17,0.00,VWS V14.01,2013-06-13 02:03:00,
2013-06-12 21:08:00,80.3,71.7,29.99,SSE,150,0.0,0.0,75,0.00,,CLR,0.17,0.00,VWS V14.01,2013-06-13 02:08:00,
2013-06-12 21:13:00,80.2,71.9,29.99,SSE,150,0.0,0.0,76,0.00,,CLR,0.17,0.00,VWS V14.01,2013-06-13 02:13:00,
2013-06-12 21:18:00,80.0,71.8,29.99,SSE,150,0.0,1.3,76,0.00,,CLR,0.17,0.00,VWS V14.01,2013-06-13 02:18:00,
2013-06-12 21:23:00,79.8,71.6,29.99,SSE,150,1.3,1.3,76,0.00,,CLR,0.17,0.00,VWS V14.01,2013-06-13 02:23:00,
2013-06-12 21:28:00,79.6,71.4,30.00,SSE,150,5.2,5.2,76,0.00,,CLR,0.17,0.00,VWS V14.01,2013-06-13 02:28:00,
2013-06-12 21:33:00,79.4,71.6,30.00,SSE,150,2.6,3.9,77,0.00,,CLR,0.17,0.00,VWS V14.01,2013-06-13 02:33:00,
2013-06-12 21:38:00,79.2,71.4,30.00,SSE,150,0.0,0.0,77,0.00,,CLR,0.17,0.00,VWS V14.01,2013-06-13 02:38:00,
2013-06-12 21:43:00,79.0,71.2,30.00,SSE,150,0.0,0.0,77,0.00,,CLR,0.17,0.00,VWS V14.01,2013-06-13 02:43:00,
2013-06-12 21:48:00,78.8,71.4,30.00,SSE,150,0.0,0.0,78,0.00,,CLR,0.17,0.00,VWS V14.01,2013-06-13 02:48:00,
2013-06-12 21:53:00,78.6,71.2,30.00,SSE,150,0.0,0.0,78,0.00,,CLR,0.17,0.00,VWS V14.01,2013-06-13 02:53:00,
2013-06-12 21:58:00,78.5,71.1,30.00,SSE,150,2.6,3.9,78,0.00,,CLR,0.17,0.00,VWS V14.01,2013-06-13 02:58:00,
2013-06-12 22:03:00,78.2,71.2,30.00,SSE,150,0.0,1.3,79,0.00,,CLR,0.17,0.00,VWS V14.01,2013-06-13 03:03:00,
2013-06-12 22:08:00,78.1,71.1,30.00,SSE,150,0.0,0.0,79,0.00,,CLR,0.17,0.00,VWS V14.01,2013-06-13 03:08:00,
2013-06-12 22:13:00,77.9,71.2,30.00,SSE,150,0.0,0.0,80,0.00,,CLR,0.17,0.00,VWS V14.01,2013-06-13 03:13:00,
2013-06-12 22:18:00,77.7,71.0,30.01,SSE,150,0.0,0.0,80,0.00,,CLR,0.17,0.00,VWS V14.01,2013-06-13 03:18:00,
2013-06-12 22:23:00,77.6,70.9,30.01,SSE,150,0.0,0.0,80,0.00,,CLR,0.17,0.00,VWS V14.01,2013-06-13 03:23:00,
2013-06-12 22:28:00,77.5,71.2,30.01,SSE,150,0.0,0.0,81,0.00,,CLR,0.17,0.00,VWS V14.01,2013-06-13 03:28:00,
2013-06-12 22:33:00,77.4,71.1,30.01,SSE,150,0.0,2.6,81,0.00,,CLR,0.17,0.00,VWS V14.01,2013-06-13 03:33:00,
2013-06-12 22:38:00,77.3,71.0,30.01,SSE,150,0.0,0.0,81,0.00,,CLR,0.17,0.00,VWS V14.01,2013-06-13 03:38:00,
2013-06-12 22:43:00,77.1,71.2,30.01,SSE,150,0.0,1.3,82,0.00,,CLR,0.17,0.00,VWS V14.01,2013-06-13 03:43:00,
2013-06-12 22:48:00,76.9,71.0,30.01,SSE,150,0.0,2.6,82,0.00,,CLR,0.17,0.00,VWS V14.01,2013-06-13 03:48:00,
2013-06-12 22:53:00,76.8,71.2,30.01,SSE,150,0.0,3.9,83,0.00,,CLR,0.17,0.00,VWS V14.01,2013-06-13 03:53:00,
2013-06-12 22:58:00,76.7,71.2,30.01,SSE,150,0.0,0.0,83,0.00,,CLR,0.17,0.00,VWS V14.01,2013-06-13 03:58:00,
2013-06-12 23:01:00,76.6,71.1,30.01,SSE,150,2.6,3.9,83,0.00,,CLR,0.17,0.00,VWS V14.01,2013-06-13 04:01:00,
2013-06-12 23:06:00,76.5,71.0,30.01,SSE,150,0.0,0.0,83,0.00,,CLR,0.17,0.00,VWS V14.01,2013-06-13 04:06:00,
2013-06-12 23:11:00,76.4,71.2,30.01,SSE,150,0.0,0.0,84,0.00,,CLR,0.17,0.00,VWS V14.01,2013-06-13 04:11:00,
2013-06-12 23:16:00,76.3,71.1,30.01,SSE,150,0.0,0.0,84,0.00,,CLR,0.17,0.00,VWS V14.01,2013-06-13 04:16:00,
2013-06-12 23:21:00,76.2,71.0,30.01,SSE,150,0.0,0.0,84,0.00,,CLR,0.17,0.00,VWS V14.01,2013-06-13 04:21:00,
2013-06-12 23:26:00,76.1,71.3,30.01,SSE,150,0.0,0.0,85,0.00,,CLR,0.17,0.00,VWS V14.01,2013-06-13 04:26:00,
2013-06-12 23:31:00,76.0,71.2,30.01,SSE,150,0.0,0.0,85,0.00,,CLR,0.17,0.00,VWS V14.01,2013-06-13 04:31:00,
2013-06-12 23:36:00,75.9,71.1,30.01,SSE,150,0.0,0.0,85,0.00,,CLR,0.17,0.00,VWS V14.01,2013-06-13 04:36:00,
2013-06-12 23:41:00,75.8,71.0,30.01,SSE,150,0.0,0.0,85,0.00,,CLR,0.17,0.00,VWS V14.01,2013-06-13 04:41:00,
2013-06-12 23:46:00,75.7,70.9,30.01,SSE,150,0.0,0.0,85,0.00,,CLR,0.17,0.00,VWS V14.01,2013-06-13 04:46:00,
2013-06-12 23:51:00,75.7,71.2,30.01,SSE,150,0.0,0.0,86,0.00,,CLR,0.17,0.00,VWS V14.01,2013-06-13 04:51:00,
2013-06-12 23:56:00,75.6,71.1,30.01,SSE,150,0.0,0.0,86,0.00,,CLR,0.17,0.00,VWS V14.01,2013-06-13 04:56:00,